Time,TemperatureF,DewpointF,PressureIn,WindDirection,WindDirectionDegrees,WindSpeedMPH,WindSpeedGustMPH,Humidity,HourlyPrecipIn,Conditions,Clouds,dailyrainin,SoftwareType,DateUTC
2013-10-14 00:01:00,73.7,66.8,30.00,South,188,1.0,1.0,79,0.00,,,0.00,Wunderground v.1.15,2013-10-14 04:01:00,
2013-10-14 00:04:00,73.6,66.7,30.00,South,186,1.0,1.0,79,0.00,,,0.00,Wunderground v.1.15,2013-10-14 04:04:00,
2013-10-14 00:05:00,73.7,67.1,30.00,South,171,1.0,1.0,80,0.00,,,0.00,Wunderground v.1.15,2013-10-14 04:05:00,
2013-10-14 00:07:00,73.6,66.7,30.00,SSW,193,1.0,1.0,79,0.00,,,0.00,Wunderground v.1.15,2013-10-14 04:07:00,
2013-10-14 00:10:00,73.6,67.0,30.00,South,185,0.0,0.0,80,0.00,,,0.00,Wunderground v.1.15,2013-10-14 04:10:00,
2013-10-14 00:11:00,73.5,66.9,30.00,South,185,0.0,0.0,80,0.00,,,0.00,Wunderground v.1.15,2013-10-14 04:11:00,
2013-10-14 00:12:00,73.5,66.9,30.00,South,185,0.0,0.0,80,0.00,,,0.00,Wunderground v.1.15,2013-10-14 04:12:00,
2013-10-14 00:14:00,73.5,66.9,30.00,South,185,0.0,0.0,80,0.00,,,0.00,Wunderground v.1.15,2013-10-14 04:14:00,
2013-10-14 00:15:00,73.4,66.9,30.00,South,185,0.0,0.0,80,0.00,,,0.00,Wunderground v.1.15,2013-10-14 04:15:00,
2013-10-14 00:16:00,73.4,66.9,30.00,South,185,0.0,0.0,80,0.00,,,0.00,Wunderground v.1.15,2013-10-14 04:16:00,
2013-10-14 00:20:00,73.3,67.1,29.99,South,185,0.0,0.0,81,0.00,,,0.00,Wunderground v.1.15,2013-10-14 04:20:00,
2013-10-14 00:21:00,73.2,67.0,29.99,South,185,0.0,0.0,81,0.00,,,0.00,Wunderground v.1.15,2013-10-14 04:21:00,
2013-10-14 00:22:00,73.2,67.4,29.99,South,185,0.0,0.0,82,0.00,,,0.00,Wunderground v.1.15,2013-10-14 04:22:00,
2013-10-14 00:24:00,73.1,67.3,29.99,South,185,0.0,0.0,82,0.00,,,0.00,Wunderground v.1.15,2013-10-14 04:24:00,
2013-10-14 00:26:00,73.0,67.2,29.99,South,185,0.0,0.0,82,0.00,,,0.00,Wunderground v.1.15,2013-10-14 04:26:00,
2013-10-14 00:28:00,72.9,67.1,29.99,South,185,0.0,0.0,82,0.00,,,0.00,Wunderground v.1.15,2013-10-14 04:28:00,
2013-10-14 00:30:00,72.8,67.0,29.99,South,185,0.0,0.0,82,0.00,,,0.00,Wunderground v.1.15,2013-10-14 04:30:00,
2013-10-14 00:32:00,72.7,66.9,29.99,South,185,0.0,2.0,82,0.00,,,0.00,Wunderground v.1.15,2013-10-14 04:32:00,
2013-10-14 00:34:00,72.6,66.8,29.99,South,185,0.0,2.0,82,0.00,,,0.00,Wunderground v.1.15,2013-10-14 04:34:00,
2013-10-14 00:35:00,72.6,66.8,29.99,South,185,0.0,2.0,82,0.00,,,0.00,Wunderground v.1.15,2013-10-14 04:35:00,
2013-10-14 00:36:00,72.5,66.7,29.99,South,185,0.0,2.0,82,0.00,,,0.00,Wunderground v.1.15,2013-10-14 04:36:00,
2013-10-14 00:38:00,72.4,66.9,29.99,South,185,0.0,2.0,83,0.00,,,0.00,Wunderground v.1.15,2013-10-14 04:38:00,
2013-10-14 00:40:00,72.3,66.8,29.99,South,185,0.0,2.0,83,0.00,,,0.00,Wunderground v.1.15,2013-10-14 04:40:00,
2013-10-14 00:41:00,72.2,66.7,29.99,South,185,0.0,2.0,83,0.00,,,0.00,Wunderground v.1.15,2013-10-14 04:41:00,
2013-10-14 00:42:00,72.2,66.7,29.99,South,185,0.0,2.0,83,0.00,,,0.00,Wunderground v.1.15,2013-10-14 04:42:00,
2013-10-14 00:44:00,72.1,67.0,29.99,South,185,0.0,2.0,84,0.00,,,0.00,Wunderground v.1.15,2013-10-14 04:44:00,
2013-10-14 00:47:00,72.1,67.3,29.99,South,185,0.0,2.0,85,0.00,,,0.00,Wunderground v.1.15,2013-10-14 04:47:00,
2013-10-14 00:48:00,72.1,67.3,29.98,South,185,0.0,2.0,85,0.00,,,0.00,Wunderground v.1.15,2013-10-14 04:48:00,
2013-10-14 00:49:00,72.0,66.9,29.98,South,185,0.0,2.0,84,0.00,,,0.00,Wunderground v.1.15,2013-10-14 04:49:00,
2013-10-14 00:51:00,72.0,67.2,29.98,South,185,0.0,2.0,85,0.00,,,0.00,Wunderground v.1.15,2013-10-14 04:51:00,
2013-10-14 00:53:00,72.0,67.2,29.98,South,185,0.0,2.0,85,0.00,,,0.00,Wunderground v.1.15,2013-10-14 04:53:00,
2013-10-14 00:54:00,72.0,67.2,29.98,South,185,0.0,2.0,85,0.00,,,0.00,Wunderground v.1.15,2013-10-14 04:54:00,
2013-10-14 00:55:00,71.9,67.1,29.98,South,185,0.0,2.0,85,0.00,,,0.00,Wunderground v.1.15,2013-10-14 04:55:00,
2013-10-14 00:57:00,71.9,67.1,29.98,South,185,0.0,2.0,85,0.00,,,0.00,Wunderground v.1.15,2013-10-14 04:57:00,
2013-10-14 01:00:00,71.8,67.4,29.98,South,185,0.0,0.0,86,0.00,,,0.00,Wunderground v.1.15,2013-10-14 05:00:00,
2013-10-14 01:01:00,71.8,67.4,29.98,South,185,0.0,0.0,86,0.00,,,0.00,Wunderground v.1.15,2013-10-14 05:01:00,
2013-10-14 01:03:00,71.8,67.4,29.97,South,185,0.0,0.0,86,0.00,,,0.00,Wunderground v.1.15,2013-10-14 05:03:00,
2013-10-14 01:05:00,71.8,67.4,29.97,South,185,0.0,0.0,86,0.00,,,0.00,Wunderground v.1.15,2013-10-14 05:05:00,
2013-10-14 01:06:00,71.7,67.3,29.97,South,185,0.0,0.0,86,0.00,,,0.00,Wunderground v.1.15,2013-10-14 05:06:00,
2013-10-14 01:07:00,71.6,67.2,29.97,South,185,0.0,0.0,86,0.00,,,0.00,Wunderground v.1.15,2013-10-14 05:07:00,
2013-10-14 01:09:00,71.6,67.2,29.97,South,185,0.0,0.0,86,0.00,,,0.00,Wunderground v.1.15,2013-10-14 05:09:00,
2013-10-14 01:12:00,71.5,67.4,29.97,South,185,0.0,0.0,87,0.00,,,0.00,Wunderground v.1.15,2013-10-14 05:12:00,
2013-10-14 01:13:00,71.5,67.4,29.97,South,185,0.0,0.0,87,0.00,,,0.00,Wunderground v.1.15,2013-10-14 05:13:00,
2013-10-14 01:14:00,71.5,67.4,29.97,South,185,0.0,0.0,87,0.00,,,0.00,Wunderground v.1.15,2013-10-14 05:14:00,
2013-10-14 01:16:00,71.5,67.4,29.97,South,185,0.0,0.0,87,0.00,,,0.00,Wunderground v.1.15,2013-10-14 05:16:00,
2013-10-14 01:18:00,71.5,67.4,29.97,South,185,0.0,0.0,87,0.00,,,0.00,Wunderground v.1.15,2013-10-14 05:18:00,
2013-10-14 01:20:00,71.5,67.4,29.97,South,185,0.0,0.0,87,0.00,,,0.00,Wunderground v.1.15,2013-10-14 05:20:00,
2013-10-14 01:21:00,71.5,67.4,29.97,South,185,0.0,0.0,87,0.00,,,0.00,Wunderground v.1.15,2013-10-14 05:21:00,
2013-10-14 01:22:00,71.5,67.4,29.97,South,185,0.0,0.0,87,0.00,,,0.00,Wunderground v.1.15,2013-10-14 05:22:00,
2013-10-14 01:23:00,71.5,67.8,29.97,South,185,0.0,0.0,88,0.00,,,0.00,Wunderground v.1.15,2013-10-14 05:23:00,
2013-10-14 01:24:00,71.5,67.8,29.97,South,185,0.0,0.0,88,0.00,,,0.00,Wunderground v.1.15,2013-10-14 05:24:00,
2013-10-14 01:26:00,71.6,67.9,29.97,South,185,0.0,0.0,88,0.00,,,0.00,Wunderground v.1.15,2013-10-14 05:26:00,
2013-10-14 01:28:00,71.6,67.9,29.97,South,185,0.0,0.0,88,0.00,,,0.00,Wunderground v.1.15,2013-10-14 05:28:00,
2013-10-14 01:29:00,71.6,67.9,29.97,South,185,0.0,0.0,88,0.00,,,0.00,Wunderground v.1.15,2013-10-14 05:29:00,
2013-10-14 01:30:00,71.7,68.0,29.97,South,185,0.0,0.0,88,0.00,,,0.00,Wunderground v.1.15,2013-10-14 05:30:00,
2013-10-14 01:33:00,71.8,67.7,29.97,South,185,0.0,0.0,87,0.00,,,0.00,Wunderground v.1.15,2013-10-14 05:33:00,
2013-10-14 01:34:00,71.8,67.7,29.97,South,185,0.0,0.0,87,0.00,,,0.00,Wunderground v.1.15,2013-10-14 05:34:00,
2013-10-14 01:35:00,71.8,68.1,29.97,South,185,0.0,0.0,88,0.00,,,0.00,Wunderground v.1.15,2013-10-14 05:35:00,
2013-10-14 01:37:00,71.9,67.8,29.97,South,185,0.0,0.0,87,0.00,,,0.00,Wunderground v.1.15,2013-10-14 05:37:00,
2013-10-14 01:39:00,71.8,67.7,29.97,South,185,0.0,0.0,87,0.00,,,0.00,Wunderground v.1.15,2013-10-14 05:39:00,
2013-10-14 01:40:00,71.9,68.2,29.97,South,185,0.0,0.0,88,0.00,,,0.00,Wunderground v.1.15,2013-10-14 05:40:00,
2013-10-14 01:42:00,71.9,68.2,29.97,South,185,0.0,0.0,88,0.00,,,0.00,Wunderground v.1.15,2013-10-14 05:42:00,
2013-10-14 01:44:00,71.9,68.2,29.97,South,185,0.0,0.0,88,0.00,,,0.00,Wunderground v.1.15,2013-10-14 05:44:00,
2013-10-14 01:46:00,71.9,68.2,29.97,South,185,0.0,0.0,88,0.00,,,0.00,Wunderground v.1.15,2013-10-14 05:46:00,
2013-10-14 01:48:00,71.9,68.2,29.97,South,185,0.0,0.0,88,0.00,,,0.00,Wunderground v.1.15,2013-10-14 05:48:00,
2013-10-14 01:49:00,71.9,68.2,29.97,South,185,0.0,0.0,88,0.00,,,0.00,Wunderground v.1.15,2013-10-14 05:49:00,
2013-10-14 01:53:00,72.1,68.3,29.97,South,185,0.0,0.0,88,0.00,,,0.00,Wunderground v.1.15,2013-10-14 05:53:00,
2013-10-14 01:54:00,72.1,68.3,29.97,South,176,0.0,0.0,88,0.00,,,0.00,Wunderground v.1.15,2013-10-14 05:54:00,
2013-10-14 01:55:00,72.1,68.3,29.97,South,176,0.0,0.0,88,0.00,,,0.00,Wunderground v.1.15,2013-10-14 05:55:00,
2013-10-14 01:58:00,72.2,68.4,29.97,South,176,0.0,0.0,88,0.00,,,0.00,Wunderground v.1.15,2013-10-14 05:58:00,
2013-10-14 01:59:00,72.3,68.5,29.97,South,176,0.0,0.0,88,0.00,,,0.00,Wunderground v.1.15,2013-10-14 05:59:00,
2013-10-14 02:03:00,72.3,68.5,29.96,South,176,0.0,1.0,88,0.00,,,0.00,Wunderground v.1.15,2013-10-14 06:03:00,
2013-10-14 02:04:00,72.3,68.2,29.96,South,177,0.0,1.0,87,0.00,,,0.00,Wunderground v.1.15,2013-10-14 06:04:00,
2013-10-14 02:05:00,72.4,68.3,29.96,South,176,0.0,2.0,87,0.00,,,0.00,Wunderground v.1.15,2013-10-14 06:05:00,
2013-10-14 02:06:00,72.4,68.6,29.96,South,176,1.0,2.0,88,0.00,,,0.00,Wunderground v.1.15,2013-10-14 06:06:00,
2013-10-14 02:07:00,72.4,68.6,29.97,South,176,1.0,2.0,88,0.00,,,0.00,Wunderground v.1.15,2013-10-14 06:07:00,
2013-10-14 02:09:00,72.4,68.6,29.96,South,173,1.0,2.0,88,0.00,,,0.00,Wunderground v.1.15,2013-10-14 06:09:00,
2013-10-14 02:11:00,72.4,68.6,29.97,South,169,1.0,1.0,88,0.00,,,0.00,Wunderground v.1.15,2013-10-14 06:11:00,
2013-10-14 02:12:00,72.5,68.7,29.97,South,180,1.0,1.0,88,0.00,,,0.00,Wunderground v.1.15,2013-10-14 06:12:00,
2013-10-14 02:15:00,72.5,68.4,29.96,South,174,1.0,1.0,87,0.00,,,0.00,Wunderground v.1.15,2013-10-14 06:15:00,
2013-10-14 02:16:00,72.5,68.4,29.96,South,175,1.0,1.0,87,0.00,,,0.00,Wunderground v.1.15,2013-10-14 06:16:00,
2013-10-14 02:19:00,72.5,68.4,29.96,South,183,1.0,2.0,87,0.00,,,0.00,Wunderground v.1.15,2013-10-14 06:19:00,
2013-10-14 02:21:00,72.6,68.5,29.96,South,185,1.0,2.0,87,0.00,,,0.00,Wunderground v.1.15,2013-10-14 06:21:00,
2013-10-14 02:23:00,72.6,68.5,29.96,South,172,1.0,2.0,87,0.00,,,0.00,Wunderground v.1.15,2013-10-14 06:23:00,
2013-10-14 02:24:00,72.6,68.5,29.96,South,178,1.0,2.0,87,0.00,,,0.00,Wunderground v.1.15,2013-10-14 06:24:00,
2013-10-14 02:28:00,72.5,68.4,29.95,South,174,1.0,2.0,87,0.00,,,0.00,Wunderground v.1.15,2013-10-14 06:28:00,
2013-10-14 02:29:00,72.5,68.4,29.96,South,183,1.0,2.0,87,0.00,,,0.00,Wunderground v.1.15,2013-10-14 06:29:00,
2013-10-14 02:30:00,72.5,68.4,29.95,SSE,168,1.0,1.0,87,0.00,,,0.00,Wunderground v.1.15,2013-10-14 06:30:00,
2013-10-14 02:33:00,72.6,68.5,29.95,South,186,1.0,2.0,87,0.00,,,0.00,Wunderground v.1.15,2013-10-14 06:33:00,
2013-10-14 02:35:00,72.6,68.5,29.96,South,182,1.0,2.0,87,0.00,,,0.00,Wunderground v.1.15,2013-10-14 06:35:00,
2013-10-14 02:36:00,72.6,68.5,29.95,South,182,1.0,2.0,87,0.00,,,0.00,Wunderground v.1.15,2013-10-14 06:36:00,
2013-10-14 02:37:00,72.5,68.4,29.95,South,182,1.0,2.0,87,0.00,,,0.00,Wunderground v.1.15,2013-10-14 06:37:00,
2013-10-14 02:38:00,72.5,68.4,29.95,South,182,1.0,2.0,87,0.00,,,0.00,Wunderground v.1.15,2013-10-14 06:38:00,
2013-10-14 02:39:00,72.5,68.4,29.95,South,182,0.0,2.0,87,0.00,,,0.00,Wunderground v.1.15,2013-10-14 06:39:00,
2013-10-14 02:43:00,72.4,68.6,29.95,South,179,0.0,0.0,88,0.00,,,0.00,Wunderground v.1.15,2013-10-14 06:43:00,
2013-10-14 02:46:00,72.5,68.7,29.95,South,179,0.0,0.0,88,0.00,,,0.00,Wunderground v.1.15,2013-10-14 06:46:00,
2013-10-14 02:47:00,72.4,68.3,29.95,South,179,0.0,0.0,87,0.00,,,0.00,Wunderground v.1.15,2013-10-14 06:47:00,
2013-10-14 02:51:00,72.4,68.6,29.95,SSE,167,0.0,3.0,88,0.00,,,0.00,Wunderground v.1.15,2013-10-14 06:51:00,
2013-10-14 02:52:00,72.4,68.6,29.95,SSW,193,0.0,3.0,88,0.00,,,0.00,Wunderground v.1.15,2013-10-14 06:52:00,
2013-10-14 02:53:00,72.4,68.6,29.95,South,188,0.0,3.0,88,0.00,,,0.00,Wunderground v.1.15,2013-10-14 06:53:00,
2013-10-14 02:58:00,72.4,68.6,29.95,South,188,0.0,3.0,88,0.00,,,0.00,Wunderground v.1.15,2013-10-14 06:58:00,
2013-10-14 02:59:00,72.4,68.6,29.95,South,188,0.0,3.0,88,0.00,,,0.00,Wunderground v.1.15,2013-10-14 06:59:00,
2013-10-14 03:00:00,72.4,68.6,29.95,South,188,0.0,1.0,88,0.00,,,0.00,Wunderground v.1.15,2013-10-14 07:00:00,
2013-10-14 03:01:00,72.4,68.6,29.95,South,188,0.0,1.0,88,0.00,,,0.00,Wunderground v.1.15,2013-10-14 07:01:00,
2013-10-14 03:04:00,72.3,68.5,29.95,South,188,0.0,1.0,88,0.00,,,0.00,Wunderground v.1.15,2013-10-14 07:04:00,
2013-10-14 03:06:00,72.2,68.4,29.95,South,188,0.0,1.0,88,0.00,,,0.00,Wunderground v.1.15,2013-10-14 07:06:00,
2013-10-14 03:07:00,72.2,68.8,29.95,South,172,1.0,1.0,89,0.00,,,0.00,Wunderground v.1.15,2013-10-14 07:07:00,
2013-10-14 03:08:00,72.2,68.8,29.95,South,178,1.0,1.0,89,0.00,,,0.00,Wunderground v.1.15,2013-10-14 07:08:00,
2013-10-14 03:13:00,72.3,68.5,29.95,South,175,1.0,2.0,88,0.00,,,0.00,Wunderground v.1.15,2013-10-14 07:13:00,
2013-10-14 03:14:00,72.3,68.5,29.95,South,174,1.0,2.0,88,0.00,,,0.00,Wunderground v.1.15,2013-10-14 07:14:00,
2013-10-14 03:15:00,72.4,68.6,29.95,South,173,1.0,2.0,88,0.00,,,0.00,Wunderground v.1.15,2013-10-14 07:15:00,
2013-10-14 03:16:00,72.4,68.6,29.95,South,188,1.0,2.0,88,0.00,,,0.00,Wunderground v.1.15,2013-10-14 07:16:00,
2013-10-14 03:18:00,72.5,68.7,29.95,South,188,2.0,2.0,88,0.00,,,0.00,Wunderground v.1.15,2013-10-14 07:18:00,
2013-10-14 03:21:00,72.5,68.7,29.95,SSE,160,2.0,3.0,88,0.00,,,0.00,Wunderground v.1.15,2013-10-14 07:21:00,
2013-10-14 03:22:00,72.6,68.8,29.95,South,169,2.0,3.0,88,0.00,,,0.00,Wunderground v.1.15,2013-10-14 07:22:00,
2013-10-14 03:23:00,72.6,68.8,29.95,South,191,2.0,3.0,88,0.00,,,0.00,Wunderground v.1.15,2013-10-14 07:23:00,
2013-10-14 03:27:00,72.6,68.8,29.95,South,172,2.0,3.0,88,0.00,,,0.00,Wunderground v.1.15,2013-10-14 07:27:00,
2013-10-14 03:30:00,72.7,68.9,29.95,South,179,1.0,1.0,88,0.00,,,0.00,Wunderground v.1.15,2013-10-14 07:30:00,
2013-10-14 03:32:00,72.7,68.9,29.95,South,179,1.0,2.0,88,0.00,,,0.00,Wunderground v.1.15,2013-10-14 07:32:00,
2013-10-14 03:33:00,72.7,68.9,29.95,SSE,161,1.0,2.0,88,0.00,,,0.00,Wunderground v.1.15,2013-10-14 07:33:00,
2013-10-14 03:35:00,72.8,69.0,29.95,South,179,1.0,3.0,88,0.00,,,0.00,Wunderground v.1.15,2013-10-14 07:35:00,
2013-10-14 03:38:00,73.0,68.9,29.95,South,188,1.0,3.0,87,0.00,,,0.00,Wunderground v.1.15,2013-10-14 07:38:00,
2013-10-14 03:39:00,73.0,68.9,29.95,South,170,2.0,3.0,87,0.00,,,0.00,Wunderground v.1.15,2013-10-14 07:39:00,
2013-10-14 03:42:00,73.1,69.0,29.95,South,185,2.0,2.0,87,0.00,,,0.00,Wunderground v.1.15,2013-10-14 07:42:00,
2013-10-14 03:43:00,73.2,69.1,29.95,South,185,2.0,2.0,87,0.00,,,0.00,Wunderground v.1.15,2013-10-14 07:43:00,
2013-10-14 03:45:00,73.2,69.1,29.95,South,187,1.0,2.0,87,0.00,,,0.00,Wunderground v.1.15,2013-10-14 07:45:00,
2013-10-14 03:46:00,73.2,69.1,29.95,SSW,197,1.0,2.0,87,0.00,,,0.00,Wunderground v.1.15,2013-10-14 07:46:00,
2013-10-14 03:49:00,73.2,69.1,29.95,South,172,1.0,2.0,87,0.00,,,0.00,Wunderground v.1.15,2013-10-14 07:49:00,
2013-10-14 03:51:00,73.3,69.2,29.95,South,181,1.0,2.0,87,0.00,,,0.00,Wunderground v.1.15,2013-10-14 07:51:00,
2013-10-14 03:52:00,73.2,69.1,29.95,South,181,1.0,2.0,87,0.00,,,0.00,Wunderground v.1.15,2013-10-14 07:52:00,
2013-10-14 03:54:00,73.2,68.8,29.95,South,186,1.0,2.0,86,0.00,,,0.00,Wunderground v.1.15,2013-10-14 07:54:00,
2013-10-14 03:55:00,73.2,68.8,29.94,South,186,1.0,2.0,86,0.00,,,0.00,Wunderground v.1.15,2013-10-14 07:55:00,
2013-10-14 03:56:00,73.2,68.8,29.94,South,186,1.0,2.0,86,0.00,,,0.00,Wunderground v.1.15,2013-10-14 07:56:00,
2013-10-14 03:57:00,73.2,68.8,29.94,South,186,1.0,2.0,86,0.00,,,0.00,Wunderground v.1.15,2013-10-14 07:57:00,
2013-10-14 04:03:00,73.0,68.9,29.94,SSE,162,0.0,1.0,87,0.00,,,0.00,Wunderground v.1.15,2013-10-14 08:03:00,
2013-10-14 04:04:00,73.0,68.9,29.94,South,190,0.0,2.0,87,0.00,,,0.00,Wunderground v.1.15,2013-10-14 08:04:00,
2013-10-14 04:05:00,73.0,68.9,29.94,South,174,0.0,2.0,87,0.00,,,0.00,Wunderground v.1.15,2013-10-14 08:05:00,
2013-10-14 04:07:00,73.0,68.9,29.94,South,183,1.0,2.0,87,0.00,,,0.00,Wunderground v.1.15,2013-10-14 08:07:00,
2013-10-14 04:10:00,73.0,68.9,29.94,SW,217,1.0,1.0,87,0.00,,,0.00,Wunderground v.1.15,2013-10-14 08:10:00,
2013-10-14 04:11:00,72.9,68.8,29.94,South,178,1.0,1.0,87,0.00,,,0.00,Wunderground v.1.15,2013-10-14 08:11:00,
2013-10-14 04:16:00,72.8,68.7,29.94,South,186,0.0,1.0,87,0.00,,,0.00,Wunderground v.1.15,2013-10-14 08:16:00,
2013-10-14 04:17:00,72.8,68.7,29.94,South,186,0.0,1.0,87,0.00,,,0.00,Wunderground v.1.15,2013-10-14 08:17:00,
2013-10-14 04:20:00,72.7,68.9,29.94,South,187,0.0,1.0,88,0.00,,,0.00,Wunderground v.1.15,2013-10-14 08:20:00,
2013-10-14 04:21:00,72.6,68.8,29.94,South,179,0.0,1.0,88,0.00,,,0.00,Wunderground v.1.15,2013-10-14 08:21:00,
2013-10-14 04:23:00,72.6,68.8,29.94,South,180,0.0,1.0,88,0.00,,,0.00,Wunderground v.1.15,2013-10-14 08:23:00,
2013-10-14 04:29:00,72.6,68.8,29.94,South,185,0.0,2.0,88,0.00,,,0.00,Wunderground v.1.15,2013-10-14 08:29:00,
2013-10-14 04:30:00,72.6,68.8,29.94,South,185,0.0,1.0,88,0.00,,,0.00,Wunderground v.1.15,2013-10-14 08:30:00,
2013-10-14 04:33:00,72.6,68.8,29.94,SSE,168,1.0,4.0,88,0.00,,,0.00,Wunderground v.1.15,2013-10-14 08:33:00,
2013-10-14 04:35:00,72.5,68.7,29.94,South,174,1.0,4.0,88,0.00,,,0.00,Wunderground v.1.15,2013-10-14 08:35:00,
2013-10-14 04:36:00,72.6,68.8,29.94,South,174,1.0,4.0,88,0.00,,,0.00,Wunderground v.1.15,2013-10-14 08:36:00,
2013-10-14 04:38:00,72.5,68.7,29.94,South,174,1.0,4.0,88,0.00,,,0.00,Wunderground v.1.15,2013-10-14 08:38:00,
2013-10-14 04:39:00,72.5,68.7,29.94,South,174,1.0,4.0,88,0.00,,,0.00,Wunderground v.1.15,2013-10-14 08:39:00,
2013-10-14 04:41:00,72.4,68.6,29.94,South,175,1.0,2.0,88,0.00,,,0.00,Wunderground v.1.15,2013-10-14 08:41:00,
2013-10-14 04:43:00,72.4,68.6,29.94,SSW,192,0.0,4.0,88,0.00,,,0.00,Wunderground v.1.15,2013-10-14 08:43:00,
2013-10-14 04:46:00,72.4,68.6,29.94,South,186,0.0,4.0,88,0.00,,,0.00,Wunderground v.1.15,2013-10-14 08:46:00,
2013-10-14 04:47:00,72.3,68.5,29.94,South,186,0.0,4.0,88,0.00,,,0.00,Wunderground v.1.15,2013-10-14 08:47:00,
2013-10-14 04:48:00,72.3,68.5,29.94,South,189,0.0,4.0,88,0.00,,,0.00,Wunderground v.1.15,2013-10-14 08:48:00,
2013-10-14 04:50:00,72.3,68.9,29.94,South,176,1.0,4.0,89,0.00,,,0.00,Wunderground v.1.15,2013-10-14 08:50:00,
2013-10-14 04:53:00,72.3,68.9,29.94,South,169,1.0,4.0,89,0.00,,,0.00,Wunderground v.1.15,2013-10-14 08:53:00,
2013-10-14 04:54:00,72.4,69.0,29.94,South,176,1.0,4.0,89,0.00,,,0.00,Wunderground v.1.15,2013-10-14 08:54:00,
2013-10-14 04:58:00,72.4,69.0,29.94,South,179,1.0,4.0,89,0.00,,,0.00,Wunderground v.1.15,2013-10-14 08:58:00,
2013-10-14 05:04:00,72.3,68.9,29.93,South,182,1.0,1.0,89,0.00,,,0.00,Wunderground v.1.15,2013-10-14 09:04:00,
2013-10-14 05:05:00,72.2,68.8,29.94,South,182,1.0,1.0,89,0.00,,,0.00,Wunderground v.1.15,2013-10-14 09:05:00,
2013-10-14 05:06:00,72.3,68.9,29.93,South,183,1.0,2.0,89,0.00,,,0.00,Wunderground v.1.15,2013-10-14 09:06:00,
2013-10-14 05:07:00,72.3,68.9,29.94,South,189,1.0,2.0,89,0.00,,,0.00,Wunderground v.1.15,2013-10-14 09:07:00,
2013-10-14 05:12:00,72.4,69.0,29.94,SSE,153,2.0,2.0,89,0.00,,,0.00,Wunderground v.1.15,2013-10-14 09:12:00,
2013-10-14 05:13:00,72.4,69.0,29.94,South,188,2.0,2.0,89,0.00,,,0.00,Wunderground v.1.15,2013-10-14 09:13:00,
2013-10-14 05:15:00,72.4,69.0,29.93,South,179,1.0,2.0,89,0.00,,,0.00,Wunderground v.1.15,2013-10-14 09:15:00,
2013-10-14 05:16:00,72.4,69.0,29.93,South,178,1.0,2.0,89,0.00,,,0.00,Wunderground v.1.15,2013-10-14 09:16:00,
2013-10-14 05:18:00,72.4,69.0,29.93,South,174,1.0,2.0,89,0.00,,,0.00,Wunderground v.1.15,2013-10-14 09:18:00,
2013-10-14 05:21:00,72.4,69.0,29.93,South,169,1.0,1.0,89,0.00,,,0.00,Wunderground v.1.15,2013-10-14 09:21:00,
2013-10-14 05:23:00,72.3,68.9,29.93,South,172,1.0,2.0,89,0.00,,,0.00,Wunderground v.1.15,2013-10-14 09:23:00,
2013-10-14 05:24:00,72.3,68.9,29.93,South,174,1.0,2.0,89,0.00,,,0.00,Wunderground v.1.15,2013-10-14 09:24:00,
2013-10-14 05:26:00,72.3,68.9,29.93,South,176,1.0,2.0,89,0.00,,,0.00,Wunderground v.1.15,2013-10-14 09:26:00,
2013-10-14 05:28:00,72.2,68.8,29.93,SSW,195,1.0,2.0,89,0.00,,,0.00,Wunderground v.1.15,2013-10-14 09:28:00,
2013-10-14 05:31:00,72.2,69.1,29.93,South,190,1.0,2.0,90,0.00,,,0.00,Wunderground v.1.15,2013-10-14 09:31:00,
2013-10-14 05:33:00,72.1,69.0,29.93,South,176,1.0,2.0,90,0.00,,,0.00,Wunderground v.1.15,2013-10-14 09:33:00,
2013-10-14 05:34:00,72.2,69.1,29.93,South,173,1.0,2.0,90,0.00,,,0.00,Wunderground v.1.15,2013-10-14 09:34:00,
2013-10-14 05:37:00,72.1,69.0,29.93,SSE,168,1.0,2.0,90,0.00,,,0.00,Wunderground v.1.15,2013-10-14 09:37:00,
2013-10-14 05:38:00,72.1,69.0,29.93,SSE,168,1.0,2.0,90,0.00,,,0.00,Wunderground v.1.15,2013-10-14 09:38:00,
2013-10-14 05:39:00,72.0,68.9,29.93,South,171,1.0,2.0,90,0.00,,,0.00,Wunderground v.1.15,2013-10-14 09:39:00,
2013-10-14 05:42:00,71.9,68.8,29.93,South,172,1.0,2.0,90,0.00,,,0.00,Wunderground v.1.15,2013-10-14 09:42:00,
2013-10-14 05:43:00,71.9,68.8,29.93,South,172,1.0,2.0,90,0.00,,,0.00,Wunderground v.1.15,2013-10-14 09:43:00,
2013-10-14 05:45:00,71.9,68.8,29.93,South,172,1.0,2.0,90,0.00,,,0.00,Wunderground v.1.15,2013-10-14 09:45:00,
2013-10-14 05:47:00,71.9,68.8,29.93,SSE,165,1.0,2.0,90,0.00,,,0.00,Wunderground v.1.15,2013-10-14 09:47:00,
2013-10-14 05:48:00,71.9,68.8,29.93,SSE,165,1.0,2.0,90,0.00,,,0.00,Wunderground v.1.15,2013-10-14 09:48:00,
2013-10-14 05:51:00,71.9,68.8,29.93,SSE,166,1.0,2.0,90,0.00,,,0.00,Wunderground v.1.15,2013-10-14 09:51:00,
2013-10-14 05:53:00,71.9,68.8,29.93,SSE,166,1.0,2.0,90,0.00,,,0.00,Wunderground v.1.15,2013-10-14 09:53:00,
2013-10-14 05:54:00,71.9,68.8,29.93,SSE,166,1.0,2.0,90,0.00,,,0.00,Wunderground v.1.15,2013-10-14 09:54:00,
2013-10-14 05:55:00,71.8,68.7,29.93,SSE,165,1.0,2.0,90,0.00,,,0.00,Wunderground v.1.15,2013-10-14 09:55:00,
2013-10-14 05:57:00,71.8,68.7,29.93,SSE,166,1.0,2.0,90,0.00,,,0.00,Wunderground v.1.15,2013-10-14 09:57:00,
2013-10-14 06:01:00,71.7,68.9,29.93,SSE,166,1.0,1.0,91,0.00,,,0.00,Wunderground v.1.15,2013-10-14 10:01:00,
2013-10-14 06:02:00,71.6,68.8,29.93,SSE,166,0.0,1.0,91,0.00,,,0.00,Wunderground v.1.15,2013-10-14 10:02:00,
2013-10-14 06:03:00,71.6,68.8,29.93,SSE,166,0.0,1.0,91,0.00,,,0.00,Wunderground v.1.15,2013-10-14 10:03:00,
2013-10-14 06:04:00,71.6,68.8,29.93,SSE,166,0.0,1.0,91,0.00,,,0.00,Wunderground v.1.15,2013-10-14 10:04:00,
2013-10-14 06:05:00,71.6,68.8,29.93,SSE,166,0.0,1.0,91,0.00,,,0.00,Wunderground v.1.15,2013-10-14 10:05:00,
2013-10-14 06:10:00,71.4,68.6,29.93,SSE,166,0.0,1.0,91,0.00,,,0.00,Wunderground v.1.15,2013-10-14 10:10:00,
2013-10-14 06:11:00,71.4,68.6,29.93,South,169,0.0,1.0,91,0.00,,,0.00,Wunderground v.1.15,2013-10-14 10:11:00,
2013-10-14 06:13:00,71.4,69.0,29.93,SSE,166,0.0,1.0,92,0.00,,,0.00,Wunderground v.1.15,2013-10-14 10:13:00,
2013-10-14 06:15:00,71.4,69.0,29.93,SSE,167,1.0,1.0,92,0.00,,,0.00,Wunderground v.1.15,2013-10-14 10:15:00,
2013-10-14 06:16:00,71.4,69.0,29.93,SSE,166,1.0,1.0,92,0.00,,,0.00,Wunderground v.1.15,2013-10-14 10:16:00,
2013-10-14 06:17:00,71.4,69.0,29.93,SSE,166,1.0,1.0,92,0.00,,,0.00,Wunderground v.1.15,2013-10-14 10:17:00,
2013-10-14 06:19:00,71.4,69.0,29.93,SSE,167,1.0,1.0,92,0.00,,,0.00,Wunderground v.1.15,2013-10-14 10:19:00,
2013-10-14 06:20:00,71.4,68.6,29.93,South,172,1.0,1.0,91,0.00,,,0.00,Wunderground v.1.15,2013-10-14 10:20:00,
2013-10-14 06:21:00,71.4,69.0,29.93,South,172,1.0,1.0,92,0.00,,,0.00,Wunderground v.1.15,2013-10-14 10:21:00,
2013-10-14 06:23:00,71.4,68.6,29.93,South,172,1.0,1.0,91,0.00,,,0.00,Wunderground v.1.15,2013-10-14 10:23:00,
2013-10-14 06:25:00,71.4,68.6,29.93,South,175,1.0,1.0,91,0.00,,,0.00,Wunderground v.1.15,2013-10-14 10:25:00,
2013-10-14 06:29:00,71.4,68.6,29.93,South,181,1.0,3.0,91,0.00,,,0.00,Wunderground v.1.15,2013-10-14 10:29:00,
2013-10-14 06:30:00,71.4,68.6,29.93,South,181,1.0,1.0,91,0.00,,,0.00,Wunderground v.1.15,2013-10-14 10:30:00,
2013-10-14 06:32:00,71.4,68.6,29.93,South,169,1.0,3.0,91,0.00,,,0.00,Wunderground v.1.15,2013-10-14 10:32:00,
2013-10-14 06:33:00,71.4,68.6,29.93,South,172,1.0,3.0,91,0.00,,,0.00,Wunderground v.1.15,2013-10-14 10:33:00,
2013-10-14 06:34:00,71.4,68.6,29.93,South,179,1.0,3.0,91,0.00,,,0.00,Wunderground v.1.15,2013-10-14 10:34:00,
2013-10-14 06:35:00,71.4,68.6,29.93,South,176,1.0,3.0,91,0.00,,,0.00,Wunderground v.1.15,2013-10-14 10:35:00,
2013-10-14 06:36:00,71.4,68.6,29.93,South,186,1.0,3.0,91,0.00,,,0.00,Wunderground v.1.15,2013-10-14 10:36:00,
2013-10-14 06:39:00,71.4,68.6,29.93,South,173,1.0,3.0,91,0.00,,,0.00,Wunderground v.1.15,2013-10-14 10:39:00,
2013-10-14 06:40:00,71.4,68.6,29.93,South,180,1.0,3.0,91,0.00,,,0.00,Wunderground v.1.15,2013-10-14 10:40:00,
2013-10-14 06:42:00,71.4,68.6,29.93,South,177,1.0,3.0,91,0.00,,,0.00,Wunderground v.1.15,2013-10-14 10:42:00,
2013-10-14 06:43:00,71.4,68.6,29.94,SSW,196,1.0,3.0,91,0.00,,,0.00,Wunderground v.1.15,2013-10-14 10:43:00,
2013-10-14 06:44:00,71.4,68.6,29.94,South,169,1.0,3.0,91,0.00,,,0.00,Wunderground v.1.15,2013-10-14 10:44:00,
2013-10-14 06:48:00,71.4,68.6,29.93,South,183,2.0,3.0,91,0.00,,,0.00,Wunderground v.1.15,2013-10-14 10:48:00,
2013-10-14 06:50:00,71.4,68.6,29.94,South,181,2.0,2.0,91,0.00,,,0.00,Wunderground v.1.15,2013-10-14 10:50:00,
2013-10-14 06:52:00,71.3,68.5,29.94,South,184,2.0,3.0,91,0.00,,,0.00,Wunderground v.1.15,2013-10-14 10:52:00,
2013-10-14 06:54:00,71.3,68.9,29.94,SSW,194,2.0,3.0,92,0.00,,,0.00,Wunderground v.1.15,2013-10-14 10:54:00,
2013-10-14 06:55:00,71.3,68.9,29.94,South,186,2.0,3.0,92,0.00,,,0.00,Wunderground v.1.15,2013-10-14 10:55:00,
2013-10-14 06:59:00,71.4,68.6,29.94,SSW,193,1.0,3.0,91,0.00,,,0.00,Wunderground v.1.15,2013-10-14 10:59:00,
2013-10-14 07:00:00,71.3,68.5,29.94,South,183,1.0,1.0,91,0.00,,,0.00,Wunderground v.1.15,2013-10-14 11:00:00,
2013-10-14 07:01:00,71.3,68.5,29.94,South,183,1.0,1.0,91,0.00,,,0.00,Wunderground v.1.15,2013-10-14 11:01:00,
2013-10-14 07:04:00,71.3,68.9,29.94,South,190,1.0,2.0,92,0.00,,,0.00,Wunderground v.1.15,2013-10-14 11:04:00,
2013-10-14 07:06:00,71.3,68.5,29.94,South,180,1.0,3.0,91,0.00,,,0.00,Wunderground v.1.15,2013-10-14 11:06:00,
2013-10-14 07:07:00,71.3,68.5,29.94,SSW,205,1.0,3.0,91,0.00,,,0.00,Wunderground v.1.15,2013-10-14 11:07:00,
2013-10-14 07:08:00,71.2,68.4,29.94,South,184,1.0,3.0,91,0.00,,,0.00,Wunderground v.1.15,2013-10-14 11:08:00,
2013-10-14 07:10:00,71.2,68.4,29.94,South,178,1.0,2.0,91,0.00,,,0.00,Wunderground v.1.15,2013-10-14 11:10:00,
2013-10-14 07:11:00,71.3,68.9,29.94,South,172,1.0,2.0,92,0.00,,,0.00,Wunderground v.1.15,2013-10-14 11:11:00,
2013-10-14 07:14:00,71.2,68.4,29.94,South,171,1.0,2.0,91,0.00,,,0.00,Wunderground v.1.15,2013-10-14 11:14:00,
2013-10-14 07:16:00,71.2,68.8,29.94,South,186,1.0,2.0,92,0.00,,,0.00,Wunderground v.1.15,2013-10-14 11:16:00,
2013-10-14 07:18:00,71.2,68.8,29.94,SSE,168,1.0,2.0,92,0.00,,,0.00,Wunderground v.1.15,2013-10-14 11:18:00,
2013-10-14 07:21:00,71.2,68.8,29.94,South,180,1.0,2.0,92,0.00,,,0.00,Wunderground v.1.15,2013-10-14 11:21:00,
2013-10-14 07:22:00,71.2,68.8,29.94,SSW,201,1.0,2.0,92,0.00,,,0.00,Wunderground v.1.15,2013-10-14 11:22:00,
2013-10-14 07:25:00,71.2,68.8,29.94,SSW,198,1.0,2.0,92,0.00,,,0.00,Wunderground v.1.15,2013-10-14 11:25:00,
2013-10-14 07:27:00,71.2,68.8,29.93,SSW,198,1.0,2.0,92,0.00,,,0.00,Wunderground v.1.15,2013-10-14 11:27:00,
2013-10-14 07:28:00,71.2,68.8,29.93,South,184,1.0,2.0,92,0.00,,,0.00,Wunderground v.1.15,2013-10-14 11:28:00,
2013-10-14 07:30:00,71.2,68.8,29.94,South,181,1.0,1.0,92,0.00,,,0.00,Wunderground v.1.15,2013-10-14 11:30:00,
2013-10-14 07:31:00,71.2,68.8,29.94,South,181,0.0,3.0,92,0.00,,,0.00,Wunderground v.1.15,2013-10-14 11:31:00,
2013-10-14 07:32:00,71.2,68.8,29.94,South,181,0.0,3.0,92,0.00,,,0.00,Wunderground v.1.15,2013-10-14 11:32:00,
2013-10-14 07:37:00,71.0,68.6,29.94,South,181,0.0,3.0,92,0.00,,,0.00,Wunderground v.1.15,2013-10-14 11:37:00,
2013-10-14 07:38:00,71.0,68.6,29.94,South,181,0.0,3.0,92,0.00,,,0.00,Wunderground v.1.15,2013-10-14 11:38:00,
2013-10-14 07:39:00,70.9,68.5,29.94,South,181,0.0,3.0,92,0.00,,,0.00,Wunderground v.1.15,2013-10-14 11:39:00,
2013-10-14 07:42:00,70.9,68.5,29.94,South,181,0.0,3.0,92,0.00,,,0.00,Wunderground v.1.15,2013-10-14 11:42:00,
2013-10-14 07:43:00,70.9,68.5,29.94,South,181,0.0,3.0,92,0.00,,,0.00,Wunderground v.1.15,2013-10-14 11:43:00,
2013-10-14 07:44:00,70.8,68.4,29.94,South,181,0.0,3.0,92,0.00,,,0.00,Wunderground v.1.15,2013-10-14 11:44:00,
2013-10-14 07:46:00,70.8,68.4,29.94,South,181,0.0,3.0,92,0.00,,,0.00,Wunderground v.1.15,2013-10-14 11:46:00,
2013-10-14 07:47:00,70.7,68.6,29.94,South,181,0.0,3.0,93,0.00,,,0.00,Wunderground v.1.15,2013-10-14 11:47:00,
2013-10-14 07:49:00,70.8,68.7,29.94,South,181,0.0,3.0,93,0.00,,,0.00,Wunderground v.1.15,2013-10-14 11:49:00,
2013-10-14 07:52:00,70.8,68.7,29.94,South,181,0.0,3.0,93,0.00,,,0.00,Wunderground v.1.15,2013-10-14 11:52:00,
2013-10-14 07:53:00,70.9,68.8,29.94,South,181,0.0,3.0,93,0.00,,,0.00,Wunderground v.1.15,2013-10-14 11:53:00,
2013-10-14 07:56:00,71.0,68.9,29.94,South,181,0.0,3.0,93,0.00,,,0.00,Wunderground v.1.15,2013-10-14 11:56:00,
2013-10-14 07:57:00,71.1,69.0,29.94,South,181,0.0,3.0,93,0.00,,,0.00,Wunderground v.1.15,2013-10-14 11:57:00,
2013-10-14 07:58:00,71.1,69.0,29.94,SSW,198,0.0,3.0,93,0.00,,,0.00,Wunderground v.1.15,2013-10-14 11:58:00,
2013-10-14 08:01:00,71.3,69.2,29.94,SW,217,0.0,0.0,93,0.00,,,0.00,Wunderground v.1.15,2013-10-14 12:01:00,
2013-10-14 08:04:00,71.6,69.5,29.95,SW,217,0.0,0.0,93,0.00,,,0.00,Wunderground v.1.15,2013-10-14 12:04:00,
2013-10-14 08:05:00,71.7,69.6,29.95,SW,217,0.0,0.0,93,0.00,,,0.00,Wunderground v.1.15,2013-10-14 12:05:00,
2013-10-14 08:06:00,71.8,69.3,29.95,South,169,0.0,2.0,92,0.00,,,0.00,Wunderground v.1.15,2013-10-14 12:06:00,
2013-10-14 08:10:00,72.1,69.6,29.95,South,176,0.0,0.0,92,0.00,,,0.00,Wunderground v.1.15,2013-10-14 12:10:00,
2013-10-14 08:11:00,72.2,69.7,29.95,South,174,0.0,0.0,92,0.00,,,0.00,Wunderground v.1.15,2013-10-14 12:11:00,
2013-10-14 08:15:00,72.6,69.5,29.95,South,175,1.0,2.0,90,0.00,,,0.00,Wunderground v.1.15,2013-10-14 12:15:00,
2013-10-14 08:17:00,72.8,69.7,29.95,South,191,1.0,2.0,90,0.00,,,0.00,Wunderground v.1.15,2013-10-14 12:17:00,
2013-10-14 08:18:00,72.9,69.8,29.95,SW,215,1.0,2.0,90,0.00,,,0.00,Wunderground v.1.15,2013-10-14 12:18:00,
2013-10-14 08:20:00,73.1,69.7,29.95,South,175,1.0,1.0,89,0.00,,,0.00,Wunderground v.1.15,2013-10-14 12:20:00,
2013-10-14 08:21:00,73.2,69.8,29.95,South,172,1.0,1.0,89,0.00,,,0.00,Wunderground v.1.15,2013-10-14 12:21:00,
2013-10-14 08:22:00,73.3,69.9,29.95,South,172,1.0,1.0,89,0.00,,,0.00,Wunderground v.1.15,2013-10-14 12:22:00,
2013-10-14 08:25:00,73.6,69.8,29.95,South,179,1.0,2.0,88,0.00,,,0.00,Wunderground v.1.15,2013-10-14 12:25:00,
2013-10-14 08:26:00,73.7,69.9,29.95,South,179,1.0,2.0,88,0.00,,,0.00,Wunderground v.1.15,2013-10-14 12:26:00,
2013-10-14 08:27:00,73.8,70.0,29.95,South,186,1.0,2.0,88,0.00,,,0.00,Wunderground v.1.15,2013-10-14 12:27:00,
2013-10-14 08:28:00,73.9,69.8,29.95,South,182,1.0,2.0,87,0.00,,,0.00,Wunderground v.1.15,2013-10-14 12:28:00,
2013-10-14 08:31:00,74.2,70.1,29.95,South,185,1.0,3.0,87,0.00,,,0.00,Wunderground v.1.15,2013-10-14 12:31:00,
2013-10-14 08:33:00,74.4,69.9,29.95,SSW,194,2.0,3.0,86,0.00,,,0.00,Wunderground v.1.15,2013-10-14 12:33:00,
2013-10-14 08:34:00,74.5,70.0,29.95,South,184,2.0,3.0,86,0.00,,,0.00,Wunderground v.1.15,2013-10-14 12:34:00,
2013-10-14 08:37:00,74.8,70.0,29.95,South,175,2.0,3.0,85,0.00,,,0.00,Wunderground v.1.15,2013-10-14 12:37:00,
2013-10-14 08:40:00,75.0,70.2,29.95,SSW,195,2.0,2.0,85,0.00,,,0.00,Wunderground v.1.15,2013-10-14 12:40:00,
2013-10-14 08:41:00,75.1,69.9,29.95,South,179,2.0,5.0,84,0.00,,,0.00,Wunderground v.1.15,2013-10-14 12:41:00,
2013-10-14 08:42:00,75.2,70.0,29.95,South,181,2.0,5.0,84,0.00,,,0.00,Wunderground v.1.15,2013-10-14 12:42:00,
2013-10-14 08:44:00,75.3,70.1,29.95,South,187,2.0,5.0,84,0.00,,,0.00,Wunderground v.1.15,2013-10-14 12:44:00,
2013-10-14 08:46:00,75.5,70.3,29.96,SSW,207,2.0,5.0,84,0.00,,,0.00,Wunderground v.1.15,2013-10-14 12:46:00,
2013-10-14 08:49:00,75.8,69.9,29.96,SSW,202,3.0,5.0,82,0.00,,,0.00,Wunderground v.1.15,2013-10-14 12:49:00,
2013-10-14 08:51:00,75.9,70.0,29.96,SSW,200,3.0,3.0,82,0.00,,,0.00,Wunderground v.1.15,2013-10-14 12:51:00,
2013-10-14 08:53:00,76.0,70.1,29.96,SSW,195,3.0,4.0,82,0.00,,,0.00,Wunderground v.1.15,2013-10-14 12:53:00,
2013-10-14 08:55:00,76.2,70.3,29.96,SSW,195,2.0,4.0,82,0.00,,,0.00,Wunderground v.1.15,2013-10-14 12:55:00,
2013-10-14 08:57:00,76.4,70.5,29.96,South,179,2.0,4.0,82,0.00,,,0.00,Wunderground v.1.15,2013-10-14 12:57:00,
2013-10-14 08:59:00,76.6,70.7,29.96,South,179,2.0,4.0,82,0.00,,,0.00,Wunderground v.1.15,2013-10-14 12:59:00,
2013-10-14 09:00:00,76.7,70.4,29.96,South,177,2.0,2.0,81,0.00,,,0.00,Wunderground v.1.15,2013-10-14 13:00:00,
2013-10-14 09:01:00,76.7,70.8,29.96,South,179,2.0,3.0,82,0.00,,,0.00,Wunderground v.1.15,2013-10-14 13:01:00,
2013-10-14 09:02:00,76.8,70.9,29.96,South,175,2.0,3.0,82,0.00,,,0.00,Wunderground v.1.15,2013-10-14 13:02:00,
2013-10-14 09:04:00,77.0,70.7,29.96,South,181,2.0,3.0,81,0.00,,,0.00,Wunderground v.1.15,2013-10-14 13:04:00,
2013-10-14 09:06:00,77.1,70.8,29.97,South,179,2.0,3.0,81,0.00,,,0.00,Wunderground v.1.15,2013-10-14 13:06:00,
2013-10-14 09:07:00,77.2,70.5,29.97,South,179,2.0,3.0,80,0.00,,,0.00,Wunderground v.1.15,2013-10-14 13:07:00,
2013-10-14 09:09:00,77.4,70.7,29.97,South,183,2.0,3.0,80,0.00,,,0.00,Wunderground v.1.15,2013-10-14 13:09:00,
2013-10-14 09:11:00,77.5,70.5,29.97,South,182,2.0,3.0,79,0.00,,,0.00,Wunderground v.1.15,2013-10-14 13:11:00,
2013-10-14 09:13:00,77.6,70.6,29.97,South,184,2.0,3.0,79,0.00,,,0.00,Wunderground v.1.15,2013-10-14 13:13:00,
2013-10-14 09:14:00,77.6,70.6,29.97,South,186,2.0,3.0,79,0.00,,,0.00,Wunderground v.1.15,2013-10-14 13:14:00,
2013-10-14 09:15:00,77.6,70.6,29.97,South,188,2.0,4.0,79,0.00,,,0.00,Wunderground v.1.15,2013-10-14 13:15:00,
2013-10-14 09:16:00,77.7,70.7,29.97,SSW,197,2.0,4.0,79,0.00,,,0.00,Wunderground v.1.15,2013-10-14 13:16:00,
2013-10-14 09:21:00,78.0,70.6,29.97,South,174,3.0,3.0,78,0.00,,,0.00,Wunderground v.1.15,2013-10-14 13:21:00,
2013-10-14 09:23:00,78.2,70.0,29.97,ENE,77,2.0,4.0,76,0.00,,,0.00,Wunderground v.1.15,2013-10-14 13:23:00,
2013-10-14 09:25:00,78.3,70.1,29.97,ENE,70,3.0,4.0,76,0.00,,,0.00,Wunderground v.1.15,2013-10-14 13:25:00,
2013-10-14 09:26:00,78.4,70.2,29.97,SE,126,2.0,4.0,76,0.00,,,0.00,Wunderground v.1.15,2013-10-14 13:26:00,
2013-10-14 09:27:00,78.5,70.3,29.97,ENE,67,2.0,4.0,76,0.00,,,0.00,Wunderground v.1.15,2013-10-14 13:27:00,
2013-10-14 09:28:00,78.6,70.4,29.97,ESE,116,2.0,4.0,76,0.00,,,0.00,Wunderground v.1.15,2013-10-14 13:28:00,
2013-10-14 09:31:00,78.8,70.6,29.97,NE,41,2.0,5.0,76,0.00,,,0.00,Wunderground v.1.15,2013-10-14 13:31:00,
2013-10-14 09:34:00,79.1,71.3,29.97,NE,56,1.0,5.0,77,0.00,,,0.00,Wunderground v.1.15,2013-10-14 13:34:00,
2013-10-14 09:36:00,79.2,70.6,29.97,NE,51,2.0,5.0,75,0.00,,,0.00,Wunderground v.1.15,2013-10-14 13:36:00,
2013-10-14 09:37:00,79.3,71.1,29.97,NE,54,2.0,5.0,76,0.00,,,0.00,Wunderground v.1.15,2013-10-14 13:37:00,
2013-10-14 09:40:00,79.5,70.9,29.97,NE,41,2.0,5.0,75,0.00,,,0.00,Wunderground v.1.15,2013-10-14 13:40:00,
2013-10-14 09:41:00,79.4,70.0,29.97,NE,34,2.0,5.0,73,0.00,,,0.00,Wunderground v.1.15,2013-10-14 13:41:00,
2013-10-14 09:43:00,79.4,70.0,29.97,ENE,67,3.0,5.0,73,0.00,,,0.00,Wunderground v.1.15,2013-10-14 13:43:00,
2013-10-14 09:47:00,79.5,70.1,29.98,NE,54,4.0,5.0,73,0.00,,,0.00,Wunderground v.1.15,2013-10-14 13:47:00,
2013-10-14 09:48:00,79.5,69.7,29.98,ENE,63,4.0,5.0,72,0.00,,,0.00,Wunderground v.1.15,2013-10-14 13:48:00,
2013-10-14 09:50:00,79.7,70.7,29.98,ENE,72,4.0,4.0,74,0.00,,,0.00,Wunderground v.1.15,2013-10-14 13:50:00,
2013-10-14 09:52:00,79.8,70.0,29.98,NE,56,3.0,5.0,72,0.00,,,0.00,Wunderground v.1.15,2013-10-14 13:52:00,
2013-10-14 09:53:00,80.0,70.2,29.98,NE,43,3.0,5.0,72,0.00,,,0.00,Wunderground v.1.15,2013-10-14 13:53:00,
2013-10-14 09:54:00,80.1,70.7,29.98,NNE,26,2.0,7.0,73,0.00,,,0.00,Wunderground v.1.15,2013-10-14 13:54:00,
2013-10-14 09:58:00,80.2,69.5,29.98,ENE,78,3.0,7.0,70,0.00,,,0.00,Wunderground v.1.15,2013-10-14 13:58:00,
2013-10-14 09:59:00,80.2,69.5,29.98,NNE,32,3.0,7.0,70,0.00,,,0.00,Wunderground v.1.15,2013-10-14 13:59:00,
2013-10-14 10:00:00,80.3,70.0,29.98,NE,50,3.0,3.0,71,0.00,,,0.00,Wunderground v.1.15,2013-10-14 14:00:00,
2013-10-14 10:01:00,80.3,69.6,29.98,NE,56,3.0,3.0,70,0.00,,,0.00,Wunderground v.1.15,2013-10-14 14:01:00,
2013-10-14 10:02:00,80.4,70.1,29.98,NNE,29,3.0,3.0,71,0.00,,,0.00,Wunderground v.1.15,2013-10-14 14:02:00,
2013-10-14 10:04:00,80.5,69.4,29.98,NE,40,3.0,6.0,69,0.00,,,0.00,Wunderground v.1.15,2013-10-14 14:04:00,
2013-10-14 10:10:00,80.6,69.5,29.98,NNE,27,3.0,3.0,69,0.00,,,0.00,Wunderground v.1.15,2013-10-14 14:10:00,
2013-10-14 10:11:00,80.6,70.3,29.98,NNE,27,3.0,3.0,71,0.00,,,0.00,Wunderground v.1.15,2013-10-14 14:11:00,
2013-10-14 10:12:00,80.7,70.0,29.98,NE,39,3.0,4.0,70,0.00,,,0.00,Wunderground v.1.15,2013-10-14 14:12:00,
2013-10-14 10:17:00,81.2,70.9,29.98,SSE,162,2.0,4.0,71,0.00,,,0.00,Wunderground v.1.15,2013-10-14 14:17:00,
2013-10-14 10:18:00,81.3,70.2,29.98,SE,130,2.0,4.0,69,0.00,,,0.00,Wunderground v.1.15,2013-10-14 14:18:00,
2013-10-14 10:19:00,81.5,70.3,29.98,ESE,104,2.0,4.0,69,0.00,,,0.00,Wunderground v.1.15,2013-10-14 14:19:00,
2013-10-14 10:20:00,81.6,70.0,29.98,NE,52,2.0,3.0,68,0.00,,,0.00,Wunderground v.1.15,2013-10-14 14:20:00,
2013-10-14 10:21:00,81.7,70.1,29.98,NE,34,2.0,3.0,68,0.00,,,0.00,Wunderground v.1.15,2013-10-14 14:21:00,
2013-10-14 10:25:00,81.6,69.1,29.98,SE,129,2.0,5.0,66,0.00,,,0.00,Wunderground v.1.15,2013-10-14 14:25:00,
2013-10-14 10:26:00,81.6,69.1,29.98,SE,132,2.0,5.0,66,0.00,,,0.00,Wunderground v.1.15,2013-10-14 14:26:00,
2013-10-14 10:28:00,81.7,69.2,29.98,SSW,202,2.0,5.0,66,0.00,,,0.00,Wunderground v.1.15,2013-10-14 14:28:00,
2013-10-14 10:29:00,81.8,69.3,29.98,NNE,31,2.0,5.0,66,0.00,,,0.00,Wunderground v.1.15,2013-10-14 14:29:00,
2013-10-14 10:33:00,81.6,69.6,29.98,ENE,65,3.0,8.0,67,0.00,,,0.00,Wunderground v.1.15,2013-10-14 14:33:00,
2013-10-14 10:34:00,81.6,69.1,29.98,North,7,2.0,8.0,66,0.00,,,0.00,Wunderground v.1.15,2013-10-14 14:34:00,
2013-10-14 10:35:00,81.6,69.1,29.98,SSE,150,2.0,8.0,66,0.00,,,0.00,Wunderground v.1.15,2013-10-14 14:35:00,
2013-10-14 10:36:00,81.7,69.2,29.98,South,174,2.0,8.0,66,0.00,,,0.00,Wunderground v.1.15,2013-10-14 14:36:00,
2013-10-14 10:37:00,81.8,69.3,29.98,NE,48,2.0,8.0,66,0.00,,,0.00,Wunderground v.1.15,2013-10-14 14:37:00,
2013-10-14 10:41:00,82.1,69.2,29.98,NW,304,2.0,8.0,65,0.00,,,0.00,Wunderground v.1.15,2013-10-14 14:41:00,
2013-10-14 10:42:00,82.3,69.8,29.98,WSW,250,2.0,8.0,66,0.00,,,0.00,Wunderground v.1.15,2013-10-14 14:42:00,
2013-10-14 10:43:00,82.4,69.9,29.98,WSW,256,2.0,8.0,66,0.00,,,0.00,Wunderground v.1.15,2013-10-14 14:43:00,
2013-10-14 10:45:00,82.6,69.6,29.98,West,271,2.0,8.0,65,0.00,,,0.00,Wunderground v.1.15,2013-10-14 14:45:00,
2013-10-14 10:48:00,82.3,68.9,29.98,West,271,3.0,8.0,64,0.00,,,0.00,Wunderground v.1.15,2013-10-14 14:48:00,
2013-10-14 10:50:00,82.1,69.2,29.98,West,260,4.0,4.0,65,0.00,,,0.00,Wunderground v.1.15,2013-10-14 14:50:00,
2013-10-14 10:51:00,82.1,69.6,29.98,WNW,289,4.0,8.0,66,0.00,,,0.00,Wunderground v.1.15,2013-10-14 14:51:00,
2013-10-14 10:52:00,82.0,69.5,29.98,WNW,296,3.0,8.0,66,0.00,,,0.00,Wunderground v.1.15,2013-10-14 14:52:00,
2013-10-14 10:57:00,81.7,69.2,29.98,WNW,296,2.0,8.0,66,0.00,,,0.00,Wunderground v.1.15,2013-10-14 14:57:00,
2013-10-14 10:58:00,81.8,69.8,29.98,ENE,60,2.0,8.0,67,0.00,,,0.00,Wunderground v.1.15,2013-10-14 14:58:00,
2013-10-14 11:00:00,82.1,69.6,29.98,WNW,293,1.0,1.0,66,0.00,,,0.00,Wunderground v.1.15,2013-10-14 15:00:00,
2013-10-14 11:05:00,82.9,69.9,29.98,ESE,105,1.0,1.0,65,0.00,,,0.00,Wunderground v.1.15,2013-10-14 15:05:00,
2013-10-14 11:06:00,83.1,69.7,29.98,ESE,105,1.0,1.0,64,0.00,,,0.00,Wunderground v.1.15,2013-10-14 15:06:00,
2013-10-14 11:07:00,83.3,69.8,29.98,West,262,1.0,2.0,64,0.00,,,0.00,Wunderground v.1.15,2013-10-14 15:07:00,
2013-10-14 11:08:00,83.4,69.9,29.98,WSW,237,1.0,2.0,64,0.00,,,0.00,Wunderground v.1.15,2013-10-14 15:08:00,
2013-10-14 11:12:00,83.5,70.0,29.98,SW,214,1.0,2.0,64,0.00,,,0.00,Wunderground v.1.15,2013-10-14 15:12:00,
2013-10-14 11:13:00,83.6,69.7,29.98,SSW,207,1.0,2.0,63,0.00,,,0.00,Wunderground v.1.15,2013-10-14 15:13:00,
2013-10-14 11:14:00,83.6,69.2,29.98,SSW,205,2.0,2.0,62,0.00,,,0.00,Wunderground v.1.15,2013-10-14 15:14:00,
2013-10-14 11:18:00,83.5,69.6,29.98,East,81,1.0,3.0,63,0.00,,,0.00,Wunderground v.1.15,2013-10-14 15:18:00,
2013-10-14 11:20:00,83.1,69.2,29.98,ESE,105,1.0,1.0,63,0.00,,,0.00,Wunderground v.1.15,2013-10-14 15:20:00,
2013-10-14 11:22:00,82.9,69.5,29.98,ESE,105,1.0,1.0,64,0.00,,,0.00,Wunderground v.1.15,2013-10-14 15:22:00,
2013-10-14 11:23:00,82.8,69.8,29.98,ESE,120,1.0,2.0,65,0.00,,,0.00,Wunderground v.1.15,2013-10-14 15:23:00,
2013-10-14 11:26:00,82.8,69.8,29.98,North,359,2.0,5.0,65,0.00,,,0.00,Wunderground v.1.15,2013-10-14 15:26:00,
2013-10-14 11:27:00,82.8,69.4,29.98,North,357,3.0,5.0,64,0.00,,,0.00,Wunderground v.1.15,2013-10-14 15:27:00,
2013-10-14 11:28:00,82.8,69.4,29.98,North,359,3.0,5.0,64,0.00,,,0.00,Wunderground v.1.15,2013-10-14 15:28:00,
2013-10-14 11:30:00,82.9,69.9,29.98,North,357,3.0,5.0,65,0.00,,,0.00,Wunderground v.1.15,2013-10-14 15:30:00,
2013-10-14 11:32:00,82.8,69.8,29.98,North,358,4.0,10.0,65,0.00,,,0.00,Wunderground v.1.15,2013-10-14 15:32:00,
2013-10-14 11:33:00,82.9,69.9,29.98,North,356,4.0,10.0,65,0.00,,,0.00,Wunderground v.1.15,2013-10-14 15:33:00,
2013-10-14 11:34:00,83.0,69.6,29.97,North,358,3.0,10.0,64,0.00,,,0.00,Wunderground v.1.15,2013-10-14 15:34:00,
2013-10-14 11:37:00,83.5,70.0,29.98,WNW,303,3.0,10.0,64,0.00,,,0.00,Wunderground v.1.15,2013-10-14 15:37:00,
2013-10-14 11:38:00,83.7,69.8,29.98,NNW,333,2.0,10.0,63,0.00,,,0.00,Wunderground v.1.15,2013-10-14 15:38:00,
2013-10-14 11:39:00,83.9,69.5,29.98,NW,315,2.0,10.0,62,0.00,,,0.00,Wunderground v.1.15,2013-10-14 15:39:00,
2013-10-14 11:43:00,84.5,70.0,29.97,NW,326,1.0,10.0,62,0.00,,,0.00,Wunderground v.1.15,2013-10-14 15:43:00,
2013-10-14 11:45:00,84.8,70.3,29.97,NNE,13,2.0,10.0,62,0.00,,,0.00,Wunderground v.1.15,2013-10-14 15:45:00,
2013-10-14 11:46:00,85.0,71.0,29.97,North,1,2.0,10.0,63,0.00,,,0.00,Wunderground v.1.15,2013-10-14 15:46:00,
2013-10-14 11:47:00,85.1,69.7,29.97,NW,323,2.0,10.0,60,0.00,,,0.00,Wunderground v.1.15,2013-10-14 15:47:00,
2013-10-14 11:49:00,85.3,69.8,29.97,NE,47,2.0,10.0,60,0.00,,,0.00,Wunderground v.1.15,2013-10-14 15:49:00,
2013-10-14 11:50:00,85.3,69.3,29.97,NE,49,1.0,1.0,59,0.00,,,0.00,Wunderground v.1.15,2013-10-14 15:50:00,
2013-10-14 11:53:00,85.8,70.8,29.97,SSW,213,1.0,10.0,61,0.00,,,0.00,Wunderground v.1.15,2013-10-14 15:53:00,
2013-10-14 11:55:00,86.1,69.6,29.97,NE,50,1.0,10.0,58,0.00,,,0.00,Wunderground v.1.15,2013-10-14 15:55:00,
2013-10-14 11:56:00,86.3,70.3,29.97,NNW,335,1.0,10.0,59,0.00,,,0.00,Wunderground v.1.15,2013-10-14 15:56:00,
2013-10-14 11:58:00,86.4,69.9,29.97,NNW,335,1.0,10.0,58,0.00,,,0.00,Wunderground v.1.15,2013-10-14 15:58:00,
2013-10-14 12:00:00,86.4,68.8,29.97,NNW,335,1.0,4.0,56,0.00,,,0.00,Wunderground v.1.15,2013-10-14 16:00:00,
2013-10-14 12:01:00,86.4,69.9,29.97,NNW,335,1.0,5.0,58,0.00,,,0.00,Wunderground v.1.15,2013-10-14 16:01:00,
2013-10-14 12:03:00,86.0,69.5,29.97,NNW,333,2.0,5.0,58,0.00,,,0.00,Wunderground v.1.15,2013-10-14 16:03:00,
2013-10-14 12:07:00,85.5,69.5,29.97,NNW,334,2.0,5.0,59,0.00,,,0.00,Wunderground v.1.15,2013-10-14 16:07:00,
2013-10-14 12:08:00,85.5,69.0,29.97,NNW,335,2.0,5.0,58,0.00,,,0.00,Wunderground v.1.15,2013-10-14 16:08:00,
2013-10-14 12:09:00,85.6,69.1,29.97,NNW,333,2.0,5.0,58,0.00,,,0.00,Wunderground v.1.15,2013-10-14 16:09:00,
2013-10-14 12:12:00,85.5,69.5,29.97,NNW,335,2.0,5.0,59,0.00,,,0.00,Wunderground v.1.15,2013-10-14 16:12:00,
2013-10-14 12:14:00,85.3,69.3,29.97,NNW,335,2.0,5.0,59,0.00,,,0.00,Wunderground v.1.15,2013-10-14 16:14:00,
2013-10-14 12:15:00,85.4,70.9,29.97,NNW,335,2.0,6.0,62,0.00,,,0.00,Wunderground v.1.15,2013-10-14 16:15:00,
2013-10-14 12:18:00,85.7,69.2,29.97,NNW,335,3.0,6.0,58,0.00,,,0.00,Wunderground v.1.15,2013-10-14 16:18:00,
2013-10-14 12:20:00,85.6,68.6,29.97,NNW,335,3.0,3.0,57,0.00,,,0.00,Wunderground v.1.15,2013-10-14 16:20:00,
2013-10-14 12:21:00,85.6,69.1,29.97,NNW,334,2.0,3.0,58,0.00,,,0.00,Wunderground v.1.15,2013-10-14 16:21:00,
2013-10-14 12:22:00,85.6,69.6,29.96,NNW,334,2.0,3.0,59,0.00,,,0.00,Wunderground v.1.15,2013-10-14 16:22:00,
2013-10-14 12:23:00,85.8,69.8,29.96,NNW,334,2.0,4.0,59,0.00,,,0.00,Wunderground v.1.15,2013-10-14 16:23:00,
2013-10-14 12:28:00,85.7,68.7,29.96,NNW,333,2.0,4.0,57,0.00,,,0.00,Wunderground v.1.15,2013-10-14 16:28:00,
2013-10-14 12:29:00,85.6,69.1,29.96,NNW,335,2.0,4.0,58,0.00,,,0.00,Wunderground v.1.15,2013-10-14 16:29:00,
2013-10-14 12:31:00,85.4,68.9,29.96,NNW,335,2.0,9.0,58,0.00,,,0.00,Wunderground v.1.15,2013-10-14 16:31:00,
2013-10-14 12:33:00,85.1,68.7,29.96,NNW,337,2.0,9.0,58,0.00,,,0.00,Wunderground v.1.15,2013-10-14 16:33:00,
2013-10-14 12:34:00,85.0,69.1,29.96,NNE,14,2.0,9.0,59,0.00,,,0.00,Wunderground v.1.15,2013-10-14 16:34:00,
2013-10-14 12:38:00,85.2,69.3,29.95,NW,318,1.0,9.0,59,0.00,,,0.00,Wunderground v.1.15,2013-10-14 16:38:00,
2013-10-14 12:39:00,85.2,69.3,29.95,NNW,338,1.0,9.0,59,0.00,,,0.00,Wunderground v.1.15,2013-10-14 16:39:00,
2013-10-14 12:41:00,85.3,68.8,29.95,NNW,342,1.0,9.0,58,0.00,,,0.00,Wunderground v.1.15,2013-10-14 16:41:00,
2013-10-14 12:42:00,85.5,69.5,29.95,NE,48,1.0,9.0,59,0.00,,,0.00,Wunderground v.1.15,2013-10-14 16:42:00,
2013-10-14 12:43:00,85.5,68.5,29.95,NE,48,1.0,9.0,57,0.00,,,0.00,Wunderground v.1.15,2013-10-14 16:43:00,
2013-10-14 12:47:00,85.9,69.4,29.95,NNE,23,1.0,9.0,58,0.00,,,0.00,Wunderground v.1.15,2013-10-14 16:47:00,
2013-10-14 12:48:00,85.9,68.9,29.95,ENE,58,1.0,9.0,57,0.00,,,0.00,Wunderground v.1.15,2013-10-14 16:48:00,
2013-10-14 12:49:00,86.1,69.6,29.95,NNE,20,1.0,9.0,58,0.00,,,0.00,Wunderground v.1.15,2013-10-14 16:49:00,
2013-10-14 12:52:00,86.0,69.5,29.95,NW,312,1.0,9.0,58,0.00,,,0.00,Wunderground v.1.15,2013-10-14 16:52:00,
2013-10-14 12:55:00,86.3,67.2,29.95,NE,45,1.0,9.0,53,0.00,,,0.00,Wunderground v.1.15,2013-10-14 16:55:00,
2013-10-14 12:56:00,86.4,66.1,29.95,NNE,31,2.0,9.0,51,0.00,,,0.00,Wunderground v.1.15,2013-10-14 16:56:00,
2013-10-14 12:57:00,86.4,66.1,29.94,NE,37,2.0,9.0,51,0.00,,,0.00,Wunderground v.1.15,2013-10-14 16:57:00,
2013-10-14 12:58:00,86.5,66.8,29.94,WNW,283,2.0,9.0,52,0.00,,,0.00,Wunderground v.1.15,2013-10-14 16:58:00,
2013-10-14 12:59:00,86.7,67.5,29.94,NNE,25,2.0,9.0,53,0.00,,,0.00,Wunderground v.1.15,2013-10-14 16:59:00,
2013-10-14 13:00:00,87.0,67.2,29.94,NNW,328,2.0,2.0,52,0.00,,,0.00,Wunderground v.1.15,2013-10-14 17:00:00,
2013-10-14 13:02:00,87.4,67.6,29.94,NNW,345,3.0,4.0,52,0.00,,,0.00,Wunderground v.1.15,2013-10-14 17:02:00,
2013-10-14 13:03:00,87.4,67.6,29.94,North,358,3.0,4.0,52,0.00,,,0.00,Wunderground v.1.15,2013-10-14 17:03:00,
2013-10-14 13:04:00,87.5,67.7,29.94,NNE,20,2.0,4.0,52,0.00,,,0.00,Wunderground v.1.15,2013-10-14 17:04:00,
2013-10-14 13:09:00,86.9,66.6,29.94,NW,313,2.0,4.0,51,0.00,,,0.00,Wunderground v.1.15,2013-10-14 17:09:00,
2013-10-14 13:10:00,86.8,66.5,29.94,WSW,257,2.0,2.0,51,0.00,,,0.00,Wunderground v.1.15,2013-10-14 17:10:00,
2013-10-14 13:11:00,86.7,67.0,29.94,WSW,240,2.0,2.0,52,0.00,,,0.00,Wunderground v.1.15,2013-10-14 17:11:00,
2013-10-14 13:14:00,86.9,67.7,29.94,North,5,1.0,3.0,53,0.00,,,0.00,Wunderground v.1.15,2013-10-14 17:14:00,
2013-10-14 13:15:00,87.0,67.2,29.94,West,265,2.0,3.0,52,0.00,,,0.00,Wunderground v.1.15,2013-10-14 17:15:00,
2013-10-14 13:17:00,87.3,68.1,29.94,NNE,27,1.0,3.0,53,0.00,,,0.00,Wunderground v.1.15,2013-10-14 17:17:00,
2013-10-14 13:20:00,87.5,68.8,29.94,North,10,2.0,6.0,54,0.00,,,0.00,Wunderground v.1.15,2013-10-14 17:20:00,
2013-10-14 13:23:00,87.6,69.4,29.93,North,6,3.0,6.0,55,0.00,,,0.00,Wunderground v.1.15,2013-10-14 17:23:00,
2013-10-14 13:25:00,87.4,69.8,29.93,SE,146,3.0,6.0,56,0.00,,,0.00,Wunderground v.1.15,2013-10-14 17:25:00,
2013-10-14 13:26:00,87.2,70.1,29.93,NE,42,3.0,6.0,57,0.00,,,0.00,Wunderground v.1.15,2013-10-14 17:26:00,
2013-10-14 13:27:00,87.1,70.0,29.93,ENE,60,3.0,7.0,57,0.00,,,0.00,Wunderground v.1.15,2013-10-14 17:27:00,
2013-10-14 13:30:00,86.5,70.0,29.93,NNE,20,4.0,6.0,58,0.00,,,0.00,Wunderground v.1.15,2013-10-14 17:30:00,
2013-10-14 13:33:00,86.4,70.4,29.93,NE,43,4.0,6.0,59,0.00,,,0.00,Wunderground v.1.15,2013-10-14 17:33:00,
2013-10-14 13:34:00,86.4,69.9,29.93,NNE,12,4.0,7.0,58,0.00,,,0.00,Wunderground v.1.15,2013-10-14 17:34:00,
2013-10-14 13:35:00,86.3,69.8,29.93,North,349,4.0,7.0,58,0.00,,,0.00,Wunderground v.1.15,2013-10-14 17:35:00,
2013-10-14 13:37:00,86.0,70.0,29.93,WSW,252,4.0,7.0,59,0.00,,,0.00,Wunderground v.1.15,2013-10-14 17:37:00,
2013-10-14 13:38:00,86.0,70.0,29.93,ENE,68,3.0,7.0,59,0.00,,,0.00,Wunderground v.1.15,2013-10-14 17:38:00,
2013-10-14 13:41:00,85.7,69.2,29.93,North,353,3.0,6.0,58,0.00,,,0.00,Wunderground v.1.15,2013-10-14 17:41:00,
2013-10-14 13:42:00,85.7,69.2,29.93,NE,53,3.0,6.0,58,0.00,,,0.00,Wunderground v.1.15,2013-10-14 17:42:00,
2013-10-14 13:43:00,85.6,69.1,29.92,WSW,256,3.0,6.0,58,0.00,,,0.00,Wunderground v.1.15,2013-10-14 17:43:00,
2013-10-14 13:47:00,85.6,70.1,29.92,NW,326,3.0,6.0,60,0.00,,,0.00,Wunderground v.1.15,2013-10-14 17:47:00,
2013-10-14 13:48:00,85.7,69.2,29.92,North,3,3.0,6.0,58,0.00,,,0.00,Wunderground v.1.15,2013-10-14 17:48:00,
2013-10-14 13:51:00,86.0,68.5,29.92,NNE,30,3.0,8.0,56,0.00,,,0.00,Wunderground v.1.15,2013-10-14 17:51:00,
2013-10-14 13:55:00,86.3,69.3,29.92,NNE,28,3.0,8.0,57,0.00,,,0.00,Wunderground v.1.15,2013-10-14 17:55:00,
2013-10-14 13:56:00,86.3,69.3,29.92,NNW,343,3.0,8.0,57,0.00,,,0.00,Wunderground v.1.15,2013-10-14 17:56:00,
2013-10-14 13:57:00,86.4,69.4,29.92,NW,319,3.0,8.0,57,0.00,,,0.00,Wunderground v.1.15,2013-10-14 17:57:00,
2013-10-14 13:58:00,86.5,68.9,29.92,NE,34,3.0,8.0,56,0.00,,,0.00,Wunderground v.1.15,2013-10-14 17:58:00,
2013-10-14 14:00:00,86.4,68.8,29.92,ESE,110,4.0,4.0,56,0.00,,,0.00,Wunderground v.1.15,2013-10-14 18:00:00,
2013-10-14 14:02:00,86.4,69.4,29.91,East,85,4.0,4.0,57,0.00,,,0.00,Wunderground v.1.15,2013-10-14 18:02:00,
2013-10-14 14:03:00,86.5,69.5,29.91,NNE,19,4.0,4.0,57,0.00,,,0.00,Wunderground v.1.15,2013-10-14 18:03:00,
2013-10-14 14:04:00,86.7,68.6,29.91,NNW,344,4.0,4.0,55,0.00,,,0.00,Wunderground v.1.15,2013-10-14 18:04:00,
2013-10-14 14:06:00,86.8,69.2,29.91,NNE,13,4.0,5.0,56,0.00,,,0.00,Wunderground v.1.15,2013-10-14 18:06:00,
2013-10-14 14:08:00,86.9,69.8,29.91,NNE,30,4.0,5.0,57,0.00,,,0.00,Wunderground v.1.15,2013-10-14 18:08:00,
2013-10-14 14:09:00,86.8,69.2,29.91,North,6,4.0,6.0,56,0.00,,,0.00,Wunderground v.1.15,2013-10-14 18:09:00,
2013-10-14 14:10:00,86.6,69.0,29.91,NNW,338,4.0,4.0,56,0.00,,,0.00,Wunderground v.1.15,2013-10-14 18:10:00,
2013-10-14 14:11:00,86.3,68.8,29.91,NE,37,4.0,4.0,56,0.00,,,0.00,Wunderground v.1.15,2013-10-14 18:11:00,
2013-10-14 14:12:00,86.1,69.1,29.91,NE,52,4.0,4.0,57,0.00,,,0.00,Wunderground v.1.15,2013-10-14 18:12:00,
2013-10-14 14:14:00,86.1,69.1,29.91,NE,54,4.0,4.0,57,0.00,,,0.00,Wunderground v.1.15,2013-10-14 18:14:00,
2013-10-14 14:18:00,86.2,69.2,29.91,ENE,60,4.0,10.0,57,0.00,,,0.00,Wunderground v.1.15,2013-10-14 18:18:00,
2013-10-14 14:19:00,86.2,69.2,29.91,NW,325,4.0,10.0,57,0.00,,,0.00,Wunderground v.1.15,2013-10-14 18:19:00,
2013-10-14 14:20:00,86.3,69.3,29.91,WSW,248,4.0,4.0,57,0.00,,,0.00,Wunderground v.1.15,2013-10-14 18:20:00,
2013-10-14 14:22:00,86.2,68.7,29.91,East,85,3.0,4.0,56,0.00,,,0.00,Wunderground v.1.15,2013-10-14 18:22:00,
2013-10-14 14:24:00,86.2,69.2,29.91,NNE,13,4.0,4.0,57,0.00,,,0.00,Wunderground v.1.15,2013-10-14 18:24:00,
2013-10-14 14:26:00,85.8,68.3,29.91,North,5,4.0,4.0,56,0.00,,,0.00,Wunderground v.1.15,2013-10-14 18:26:00,
2013-10-14 14:27:00,85.7,68.2,29.91,NNE,15,3.0,4.0,56,0.00,,,0.00,Wunderground v.1.15,2013-10-14 18:27:00,
2013-10-14 14:28:00,85.6,68.6,29.91,NE,53,3.0,4.0,57,0.00,,,0.00,Wunderground v.1.15,2013-10-14 18:28:00,
2013-10-14 14:31:00,85.7,68.7,29.91,NE,55,3.0,9.0,57,0.00,,,0.00,Wunderground v.1.15,2013-10-14 18:31:00,
2013-10-14 14:32:00,85.7,68.7,29.91,NE,40,3.0,9.0,57,0.00,,,0.00,Wunderground v.1.15,2013-10-14 18:32:00,
2013-10-14 14:34:00,85.7,68.2,29.91,NE,42,4.0,9.0,56,0.00,,,0.00,Wunderground v.1.15,2013-10-14 18:34:00,
2013-10-14 14:35:00,85.7,68.7,29.91,NNE,32,4.0,9.0,57,0.00,,,0.00,Wunderground v.1.15,2013-10-14 18:35:00,
2013-10-14 14:37:00,85.7,68.2,29.91,NE,49,3.0,9.0,56,0.00,,,0.00,Wunderground v.1.15,2013-10-14 18:37:00,
2013-10-14 14:40:00,85.2,67.7,29.91,North,360,4.0,4.0,56,0.00,,,0.00,Wunderground v.1.15,2013-10-14 18:40:00,
2013-10-14 14:42:00,85.1,68.2,29.90,NE,45,4.0,9.0,57,0.00,,,0.00,Wunderground v.1.15,2013-10-14 18:42:00,
2013-10-14 14:43:00,85.2,68.2,29.90,ENE,70,3.0,9.0,57,0.00,,,0.00,Wunderground v.1.15,2013-10-14 18:43:00,
2013-10-14 14:46:00,85.4,68.9,29.90,North,354,3.0,9.0,58,0.00,,,0.00,Wunderground v.1.15,2013-10-14 18:46:00,
2013-10-14 14:48:00,85.4,69.4,29.90,NW,314,3.0,9.0,59,0.00,,,0.00,Wunderground v.1.15,2013-10-14 18:48:00,
2013-10-14 14:49:00,85.4,69.4,29.90,NE,41,2.0,9.0,59,0.00,,,0.00,Wunderground v.1.15,2013-10-14 18:49:00,
2013-10-14 14:51:00,85.7,69.7,29.90,NE,51,2.0,9.0,59,0.00,,,0.00,Wunderground v.1.15,2013-10-14 18:51:00,
2013-10-14 14:55:00,85.9,69.4,29.90,East,84,2.0,9.0,58,0.00,,,0.00,Wunderground v.1.15,2013-10-14 18:55:00,
2013-10-14 14:56:00,86.1,69.1,29.89,North,4,3.0,9.0,57,0.00,,,0.00,Wunderground v.1.15,2013-10-14 18:56:00,
2013-10-14 14:57:00,86.1,68.6,29.90,North,358,3.0,9.0,56,0.00,,,0.00,Wunderground v.1.15,2013-10-14 18:57:00,
2013-10-14 15:02:00,86.4,68.8,29.89,NNE,30,3.0,4.0,56,0.00,,,0.00,Wunderground v.1.15,2013-10-14 19:02:00,
2013-10-14 15:03:00,86.5,68.9,29.89,North,6,3.0,4.0,56,0.00,,,0.00,Wunderground v.1.15,2013-10-14 19:03:00,
2013-10-14 15:04:00,86.6,69.0,29.89,NNE,17,3.0,4.0,56,0.00,,,0.00,Wunderground v.1.15,2013-10-14 19:04:00,
2013-10-14 15:05:00,86.5,68.4,29.89,NNE,15,4.0,4.0,55,0.00,,,0.00,Wunderground v.1.15,2013-10-14 19:05:00,
2013-10-14 15:08:00,86.2,68.1,29.89,WSW,258,4.0,4.0,55,0.00,,,0.00,Wunderground v.1.15,2013-10-14 19:08:00,
2013-10-14 15:11:00,86.1,69.1,29.89,NE,41,4.0,7.0,57,0.00,,,0.00,Wunderground v.1.15,2013-10-14 19:11:00,
2013-10-14 15:13:00,86.3,68.8,29.89,North,11,4.0,7.0,56,0.00,,,0.00,Wunderground v.1.15,2013-10-14 19:13:00,
2013-10-14 15:14:00,86.3,68.8,29.89,West,278,4.0,7.0,56,0.00,,,0.00,Wunderground v.1.15,2013-10-14 19:14:00,
2013-10-14 15:19:00,85.4,68.9,29.89,WSW,238,2.0,7.0,58,0.00,,,0.00,Wunderground v.1.15,2013-10-14 19:19:00,
2013-10-14 15:20:00,85.2,68.8,29.89,ENE,66,2.0,2.0,58,0.00,,,0.00,Wunderground v.1.15,2013-10-14 19:20:00,
2013-10-14 15:22:00,85.3,68.8,29.89,NNE,18,2.0,2.0,58,0.00,,,0.00,Wunderground v.1.15,2013-10-14 19:22:00,
2013-10-14 15:25:00,85.5,69.0,29.89,North,352,2.0,7.0,58,0.00,,,0.00,Wunderground v.1.15,2013-10-14 19:25:00,
2013-10-14 15:26:00,85.5,69.0,29.89,West,274,3.0,7.0,58,0.00,,,0.00,Wunderground v.1.15,2013-10-14 19:26:00,
2013-10-14 15:32:00,86.0,69.5,29.89,NNE,23,2.0,11.0,58,0.00,,,0.00,Wunderground v.1.15,2013-10-14 19:32:00,
2013-10-14 15:33:00,86.1,69.1,29.89,NNE,22,2.0,11.0,57,0.00,,,0.00,Wunderground v.1.15,2013-10-14 19:33:00,
2013-10-14 15:34:00,86.3,69.3,29.89,NNE,15,2.0,11.0,57,0.00,,,0.00,Wunderground v.1.15,2013-10-14 19:34:00,
2013-10-14 15:35:00,86.3,68.8,29.89,SSW,213,2.0,11.0,56,0.00,,,0.00,Wunderground v.1.15,2013-10-14 19:35:00,
2013-10-14 15:37:00,86.3,68.8,29.89,NNW,335,2.0,11.0,56,0.00,,,0.00,Wunderground v.1.15,2013-10-14 19:37:00,
2013-10-14 15:39:00,86.3,68.8,29.89,NNE,30,3.0,11.0,56,0.00,,,0.00,Wunderground v.1.15,2013-10-14 19:39:00,
2013-10-14 15:40:00,86.3,68.8,29.89,ENE,57,3.0,3.0,56,0.00,,,0.00,Wunderground v.1.15,2013-10-14 19:40:00,
2013-10-14 15:41:00,86.2,68.7,29.89,NE,43,3.0,5.0,56,0.00,,,0.00,Wunderground v.1.15,2013-10-14 19:41:00,
2013-10-14 15:44:00,86.1,68.6,29.89,NE,34,3.0,11.0,56,0.00,,,0.00,Wunderground v.1.15,2013-10-14 19:44:00,
2013-10-14 15:45:00,86.1,68.6,29.89,West,271,3.0,11.0,56,0.00,,,0.00,Wunderground v.1.15,2013-10-14 19:45:00,
2013-10-14 15:47:00,86.1,68.6,29.89,North,358,3.0,11.0,56,0.00,,,0.00,Wunderground v.1.15,2013-10-14 19:47:00,
2013-10-14 15:49:00,86.0,68.5,29.89,North,358,3.0,11.0,56,0.00,,,0.00,Wunderground v.1.15,2013-10-14 19:49:00,
2013-10-14 15:51:00,85.9,68.4,29.89,West,280,3.0,11.0,56,0.00,,,0.00,Wunderground v.1.15,2013-10-14 19:51:00,
2013-10-14 15:52:00,85.8,68.3,29.88,North,4,3.0,11.0,56,0.00,,,0.00,Wunderground v.1.15,2013-10-14 19:52:00,
2013-10-14 15:53:00,85.7,68.7,29.89,NNE,20,3.0,11.0,57,0.00,,,0.00,Wunderground v.1.15,2013-10-14 19:53:00,
2013-10-14 15:55:00,85.5,68.0,29.89,NNE,25,3.0,11.0,56,0.00,,,0.00,Wunderground v.1.15,2013-10-14 19:55:00,
2013-10-14 15:58:00,85.1,68.2,29.88,NNW,344,3.0,11.0,57,0.00,,,0.00,Wunderground v.1.15,2013-10-14 19:58:00,
2013-10-14 15:59:00,85.0,68.6,29.89,North,358,3.0,11.0,58,0.00,,,0.00,Wunderground v.1.15,2013-10-14 19:59:00,
2013-10-14 16:02:00,85.0,67.5,29.89,North,354,3.0,5.0,56,0.00,,,0.00,Wunderground v.1.15,2013-10-14 20:02:00,
2013-10-14 16:03:00,85.0,67.5,29.89,NNW,328,3.0,5.0,56,0.00,,,0.00,Wunderground v.1.15,2013-10-14 20:03:00,
2013-10-14 16:04:00,85.1,67.1,29.88,NNE,13,3.0,5.0,55,0.00,,,0.00,Wunderground v.1.15,2013-10-14 20:04:00,
2013-10-14 16:05:00,85.3,67.8,29.88,West,264,3.0,5.0,56,0.00,,,0.00,Wunderground v.1.15,2013-10-14 20:05:00,
2013-10-14 16:08:00,85.5,68.0,29.88,North,358,2.0,5.0,56,0.00,,,0.00,Wunderground v.1.15,2013-10-14 20:08:00,
2013-10-14 16:11:00,85.7,68.2,29.89,NE,56,2.0,6.0,56,0.00,,,0.00,Wunderground v.1.15,2013-10-14 20:11:00,
2013-10-14 16:17:00,85.7,68.2,29.89,East,90,3.0,6.0,56,0.00,,,0.00,Wunderground v.1.15,2013-10-14 20:17:00,
2013-10-14 16:18:00,85.8,68.3,29.89,NNE,12,3.0,6.0,56,0.00,,,0.00,Wunderground v.1.15,2013-10-14 20:18:00,
2013-10-14 16:19:00,85.8,67.8,29.89,NE,34,3.0,6.0,55,0.00,,,0.00,Wunderground v.1.15,2013-10-14 20:19:00,
2013-10-14 16:21:00,85.7,68.2,29.88,NE,38,3.0,5.0,56,0.00,,,0.00,Wunderground v.1.15,2013-10-14 20:21:00,
2013-10-14 16:24:00,86.1,68.6,29.88,NNE,27,3.0,5.0,56,0.00,,,0.00,Wunderground v.1.15,2013-10-14 20:24:00,
2013-10-14 16:25:00,86.1,69.1,29.88,North,1,3.0,5.0,57,0.00,,,0.00,Wunderground v.1.15,2013-10-14 20:25:00,
2013-10-14 16:27:00,86.4,68.8,29.88,NE,43,2.0,5.0,56,0.00,,,0.00,Wunderground v.1.15,2013-10-14 20:27:00,
2013-10-14 16:29:00,86.4,68.8,29.88,NNE,18,2.0,6.0,56,0.00,,,0.00,Wunderground v.1.15,2013-10-14 20:29:00,
2013-10-14 16:31:00,86.3,68.8,29.88,NNE,18,2.0,8.0,56,0.00,,,0.00,Wunderground v.1.15,2013-10-14 20:31:00,
2013-10-14 16:36:00,86.0,68.0,29.88,North,10,2.0,8.0,55,0.00,,,0.00,Wunderground v.1.15,2013-10-14 20:36:00,
2013-10-14 16:37:00,85.9,68.4,29.88,NNW,344,2.0,8.0,56,0.00,,,0.00,Wunderground v.1.15,2013-10-14 20:37:00,
2013-10-14 16:41:00,86.0,68.0,29.88,SSE,168,3.0,3.0,55,0.00,,,0.00,Wunderground v.1.15,2013-10-14 20:41:00,
2013-10-14 16:43:00,85.9,68.4,29.88,WSW,252,3.0,8.0,56,0.00,,,0.00,Wunderground v.1.15,2013-10-14 20:43:00,
2013-10-14 16:44:00,85.9,68.4,29.88,NNW,338,3.0,8.0,56,0.00,,,0.00,Wunderground v.1.15,2013-10-14 20:44:00,
2013-10-14 16:46:00,85.9,68.4,29.88,NNW,338,2.0,8.0,56,0.00,,,0.00,Wunderground v.1.15,2013-10-14 20:46:00,
2013-10-14 16:48:00,85.9,67.9,29.88,NNE,19,2.0,8.0,55,0.00,,,0.00,Wunderground v.1.15,2013-10-14 20:48:00,
2013-10-14 16:49:00,85.9,68.4,29.88,NNW,337,2.0,8.0,56,0.00,,,0.00,Wunderground v.1.15,2013-10-14 20:49:00,
2013-10-14 16:52:00,85.8,68.3,29.88,North,7,2.0,8.0,56,0.00,,,0.00,Wunderground v.1.15,2013-10-14 20:52:00,
2013-10-14 16:55:00,85.9,68.4,29.88,NW,308,2.0,8.0,56,0.00,,,0.00,Wunderground v.1.15,2013-10-14 20:55:00,
2013-10-14 16:56:00,85.9,68.4,29.88,North,3,2.0,8.0,56,0.00,,,0.00,Wunderground v.1.15,2013-10-14 20:56:00,
2013-10-14 16:58:00,85.9,68.4,29.88,North,359,2.0,8.0,56,0.00,,,0.00,Wunderground v.1.15,2013-10-14 20:58:00,
2013-10-14 17:01:00,85.8,68.3,29.88,NNE,30,2.0,5.0,56,0.00,,,0.00,Wunderground v.1.15,2013-10-14 21:01:00,
2013-10-14 17:02:00,85.7,68.2,29.88,West,276,3.0,5.0,56,0.00,,,0.00,Wunderground v.1.15,2013-10-14 21:02:00,
2013-10-14 17:04:00,85.7,68.2,29.88,North,5,3.0,5.0,56,0.00,,,0.00,Wunderground v.1.15,2013-10-14 21:04:00,
2013-10-14 17:06:00,85.7,68.2,29.88,NNE,23,3.0,5.0,56,0.00,,,0.00,Wunderground v.1.15,2013-10-14 21:06:00,
2013-10-14 17:07:00,85.6,68.1,29.88,North,349,3.0,5.0,56,0.00,,,0.00,Wunderground v.1.15,2013-10-14 21:07:00,
2013-10-14 17:08:00,85.5,68.0,29.88,WNW,292,3.0,5.0,56,0.00,,,0.00,Wunderground v.1.15,2013-10-14 21:08:00,
2013-10-14 17:09:00,85.5,68.5,29.88,West,268,3.0,5.0,57,0.00,,,0.00,Wunderground v.1.15,2013-10-14 21:09:00,
2013-10-14 17:11:00,85.5,69.0,29.88,WNW,288,3.0,3.0,58,0.00,,,0.00,Wunderground v.1.15,2013-10-14 21:11:00,
2013-10-14 17:13:00,85.4,68.4,29.88,North,359,3.0,4.0,57,0.00,,,0.00,Wunderground v.1.15,2013-10-14 21:13:00,
2013-10-14 17:14:00,85.4,68.4,29.88,North,4,3.0,4.0,57,0.00,,,0.00,Wunderground v.1.15,2013-10-14 21:14:00,
2013-10-14 17:15:00,85.4,68.4,29.88,North,10,3.0,4.0,57,0.00,,,0.00,Wunderground v.1.15,2013-10-14 21:15:00,
2013-10-14 17:18:00,85.2,68.8,29.88,NNE,13,3.0,4.0,58,0.00,,,0.00,Wunderground v.1.15,2013-10-14 21:18:00,
2013-10-14 17:19:00,85.2,68.8,29.88,North,356,3.0,4.0,58,0.00,,,0.00,Wunderground v.1.15,2013-10-14 21:19:00,
2013-10-14 17:20:00,85.2,68.8,29.88,North,354,3.0,3.0,58,0.00,,,0.00,Wunderground v.1.15,2013-10-14 21:20:00,
2013-10-14 17:22:00,85.3,69.3,29.88,NE,53,2.0,3.0,59,0.00,,,0.00,Wunderground v.1.15,2013-10-14 21:22:00,
2013-10-14 17:23:00,85.3,68.8,29.88,East,84,2.0,3.0,58,0.00,,,0.00,Wunderground v.1.15,2013-10-14 21:23:00,
2013-10-14 17:24:00,85.3,68.8,29.88,North,358,2.0,4.0,58,0.00,,,0.00,Wunderground v.1.15,2013-10-14 21:24:00,
2013-10-14 17:26:00,85.2,69.3,29.88,NNW,347,2.0,4.0,59,0.00,,,0.00,Wunderground v.1.15,2013-10-14 21:26:00,
2013-10-14 17:27:00,85.2,68.8,29.88,NNW,332,2.0,4.0,58,0.00,,,0.00,Wunderground v.1.15,2013-10-14 21:27:00,
2013-10-14 17:30:00,85.1,68.7,29.88,NNE,24,2.0,2.0,58,0.00,,,0.00,Wunderground v.1.15,2013-10-14 21:30:00,
2013-10-14 17:31:00,85.1,68.7,29.88,SW,225,2.0,10.0,58,0.00,,,0.00,Wunderground v.1.15,2013-10-14 21:31:00,
2013-10-14 17:32:00,85.1,68.2,29.88,West,267,2.0,10.0,57,0.00,,,0.00,Wunderground v.1.15,2013-10-14 21:32:00,
2013-10-14 17:33:00,85.1,68.2,29.88,NNE,25,2.0,10.0,57,0.00,,,0.00,Wunderground v.1.15,2013-10-14 21:33:00,
2013-10-14 17:34:00,85.2,68.2,29.88,North,1,1.0,10.0,57,0.00,,,0.00,Wunderground v.1.15,2013-10-14 21:34:00,
2013-10-14 17:37:00,85.1,68.2,29.88,SSW,207,1.0,10.0,57,0.00,,,0.00,Wunderground v.1.15,2013-10-14 21:37:00,
2013-10-14 17:39:00,84.9,68.0,29.88,ENE,60,2.0,10.0,57,0.00,,,0.00,Wunderground v.1.15,2013-10-14 21:39:00,
2013-10-14 17:42:00,84.7,68.3,29.88,North,7,2.0,10.0,58,0.00,,,0.00,Wunderground v.1.15,2013-10-14 21:42:00,
2013-10-14 17:43:00,84.7,68.3,29.88,NNW,331,2.0,10.0,58,0.00,,,0.00,Wunderground v.1.15,2013-10-14 21:43:00,
2013-10-14 17:44:00,84.6,68.2,29.88,NE,53,3.0,10.0,58,0.00,,,0.00,Wunderground v.1.15,2013-10-14 21:44:00,
2013-10-14 17:46:00,84.5,68.6,29.88,NNE,12,3.0,10.0,59,0.00,,,0.00,Wunderground v.1.15,2013-10-14 21:46:00,
2013-10-14 17:47:00,84.4,68.5,29.88,NNE,15,3.0,10.0,59,0.00,,,0.00,Wunderground v.1.15,2013-10-14 21:47:00,
2013-10-14 17:49:00,84.2,68.8,29.89,WSW,242,3.0,10.0,60,0.00,,,0.00,Wunderground v.1.15,2013-10-14 21:49:00,
2013-10-14 17:51:00,84.2,68.8,29.89,NNW,345,3.0,4.0,60,0.00,,,0.00,Wunderground v.1.15,2013-10-14 21:51:00,
2013-10-14 17:53:00,84.1,68.7,29.89,NNW,346,3.0,10.0,60,0.00,,,0.00,Wunderground v.1.15,2013-10-14 21:53:00,
2013-10-14 17:56:00,83.8,68.4,29.89,North,11,3.0,10.0,60,0.00,,,0.00,Wunderground v.1.15,2013-10-14 21:56:00,
2013-10-14 17:58:00,83.8,68.4,29.89,NE,53,2.0,10.0,60,0.00,,,0.00,Wunderground v.1.15,2013-10-14 21:58:00,
2013-10-14 18:00:00,83.7,68.8,29.89,NW,314,3.0,3.0,61,0.00,,,0.00,Wunderground v.1.15,2013-10-14 22:00:00,
2013-10-14 18:01:00,83.7,68.8,29.89,NNE,15,3.0,3.0,61,0.00,,,0.00,Wunderground v.1.15,2013-10-14 22:01:00,
2013-10-14 18:02:00,83.7,68.8,29.89,East,86,3.0,3.0,61,0.00,,,0.00,Wunderground v.1.15,2013-10-14 22:02:00,
2013-10-14 18:03:00,83.7,68.8,29.89,North,354,3.0,3.0,61,0.00,,,0.00,Wunderground v.1.15,2013-10-14 22:03:00,
2013-10-14 18:05:00,83.6,68.7,29.89,NW,318,3.0,3.0,61,0.00,,,0.00,Wunderground v.1.15,2013-10-14 22:05:00,
2013-10-14 18:07:00,83.5,68.6,29.89,NNE,23,2.0,3.0,61,0.00,,,0.00,Wunderground v.1.15,2013-10-14 22:07:00,
2013-10-14 18:08:00,83.4,68.5,29.89,North,4,2.0,3.0,61,0.00,,,0.00,Wunderground v.1.15,2013-10-14 22:08:00,
2013-10-14 18:10:00,83.2,68.3,29.89,North,2,2.0,2.0,61,0.00,,,0.00,Wunderground v.1.15,2013-10-14 22:10:00,
2013-10-14 18:12:00,83.0,68.6,29.89,NNW,345,2.0,6.0,62,0.00,,,0.00,Wunderground v.1.15,2013-10-14 22:12:00,
2013-10-14 18:14:00,82.8,68.4,29.89,WSW,254,2.0,6.0,62,0.00,,,0.00,Wunderground v.1.15,2013-10-14 22:14:00,
2013-10-14 18:15:00,82.8,68.4,29.89,NNE,21,2.0,6.0,62,0.00,,,0.00,Wunderground v.1.15,2013-10-14 22:15:00,
2013-10-14 18:18:00,82.6,68.7,29.89,North,355,2.0,6.0,63,0.00,,,0.00,Wunderground v.1.15,2013-10-14 22:18:00,
2013-10-14 18:21:00,82.4,68.5,29.89,NNE,23,2.0,2.0,63,0.00,,,0.00,Wunderground v.1.15,2013-10-14 22:21:00,
2013-10-14 18:23:00,82.3,68.4,29.89,NNE,16,2.0,3.0,63,0.00,,,0.00,Wunderground v.1.15,2013-10-14 22:23:00,
2013-10-14 18:24:00,82.2,68.3,29.89,North,349,2.0,3.0,63,0.00,,,0.00,Wunderground v.1.15,2013-10-14 22:24:00,
2013-10-14 18:27:00,82.1,68.7,29.89,North,11,2.0,3.0,64,0.00,,,0.00,Wunderground v.1.15,2013-10-14 22:27:00,
2013-10-14 18:28:00,82.0,68.6,29.89,NNE,14,2.0,3.0,64,0.00,,,0.00,Wunderground v.1.15,2013-10-14 22:28:00,
2013-10-14 18:29:00,81.9,69.0,29.89,WSW,250,2.0,3.0,65,0.00,,,0.00,Wunderground v.1.15,2013-10-14 22:29:00,
2013-10-14 18:30:00,81.8,68.9,29.89,WSW,252,2.0,2.0,65,0.00,,,0.00,Wunderground v.1.15,2013-10-14 22:30:00,
2013-10-14 18:32:00,81.8,68.9,29.89,North,356,2.0,8.0,65,0.00,,,0.00,Wunderground v.1.15,2013-10-14 22:32:00,
2013-10-14 18:34:00,81.7,68.8,29.90,North,5,1.0,8.0,65,0.00,,,0.00,Wunderground v.1.15,2013-10-14 22:34:00,
2013-10-14 18:37:00,81.6,69.1,29.90,NE,43,1.0,8.0,66,0.00,,,0.00,Wunderground v.1.15,2013-10-14 22:37:00,
2013-10-14 18:40:00,81.5,69.0,29.90,NNE,30,1.0,8.0,66,0.00,,,0.00,Wunderground v.1.15,2013-10-14 22:40:00,
2013-10-14 18:41:00,81.5,69.0,29.90,NNW,338,1.0,8.0,66,0.00,,,0.00,Wunderground v.1.15,2013-10-14 22:41:00,
2013-10-14 18:42:00,81.4,68.9,29.90,NNW,345,1.0,8.0,66,0.00,,,0.00,Wunderground v.1.15,2013-10-14 22:42:00,
2013-10-14 18:43:00,81.4,68.9,29.90,West,271,1.0,8.0,66,0.00,,,0.00,Wunderground v.1.15,2013-10-14 22:43:00,
2013-10-14 18:44:00,81.3,68.9,29.90,North,357,1.0,8.0,66,0.00,,,0.00,Wunderground v.1.15,2013-10-14 22:44:00,
2013-10-14 18:46:00,81.1,69.1,29.90,North,358,1.0,8.0,67,0.00,,,0.00,Wunderground v.1.15,2013-10-14 22:46:00,
2013-10-14 18:47:00,81.0,69.0,29.90,North,11,1.0,8.0,67,0.00,,,0.00,Wunderground v.1.15,2013-10-14 22:47:00,
2013-10-14 18:49:00,81.0,69.0,29.90,NW,318,1.0,8.0,67,0.00,,,0.00,Wunderground v.1.15,2013-10-14 22:49:00,
2013-10-14 18:50:00,80.9,68.9,29.90,North,1,1.0,8.0,67,0.00,,,0.00,Wunderground v.1.15,2013-10-14 22:50:00,
2013-10-14 18:53:00,80.8,68.8,29.90,NNE,27,1.0,8.0,67,0.00,,,0.00,Wunderground v.1.15,2013-10-14 22:53:00,
2013-10-14 18:54:00,80.8,68.8,29.90,NNE,14,1.0,8.0,67,0.00,,,0.00,Wunderground v.1.15,2013-10-14 22:54:00,
2013-10-14 18:56:00,80.7,68.7,29.90,North,357,2.0,8.0,67,0.00,,,0.00,Wunderground v.1.15,2013-10-14 22:56:00,
2013-10-14 18:57:00,80.7,68.7,29.90,NE,52,2.0,8.0,67,0.00,,,0.00,Wunderground v.1.15,2013-10-14 22:57:00,
2013-10-14 18:59:00,80.6,68.6,29.90,North,7,2.0,8.0,67,0.00,,,0.00,Wunderground v.1.15,2013-10-14 22:59:00,
2013-10-14 19:01:00,80.6,68.6,29.90,NNE,33,1.0,3.0,67,0.00,,,0.00,Wunderground v.1.15,2013-10-14 23:01:00,
2013-10-14 19:03:00,80.5,69.0,29.90,ENE,66,1.0,3.0,68,0.00,,,0.00,Wunderground v.1.15,2013-10-14 23:03:00,
2013-10-14 19:04:00,80.5,69.0,29.90,NE,51,1.0,3.0,68,0.00,,,0.00,Wunderground v.1.15,2013-10-14 23:04:00,
2013-10-14 19:05:00,80.5,69.0,29.90,NNW,347,1.0,3.0,68,0.00,,,0.00,Wunderground v.1.15,2013-10-14 23:05:00,
2013-10-14 19:08:00,80.3,68.8,29.90,ENE,65,1.0,3.0,68,0.00,,,0.00,Wunderground v.1.15,2013-10-14 23:08:00,
2013-10-14 19:10:00,80.2,68.7,29.90,NW,316,1.0,1.0,68,0.00,,,0.00,Wunderground v.1.15,2013-10-14 23:10:00,
2013-10-14 19:11:00,80.2,69.1,29.90,North,352,1.0,1.0,69,0.00,,,0.00,Wunderground v.1.15,2013-10-14 23:11:00,
2013-10-14 19:12:00,80.1,69.0,29.90,North,11,1.0,2.0,69,0.00,,,0.00,Wunderground v.1.15,2013-10-14 23:12:00,
2013-10-14 19:14:00,80.1,69.0,29.90,North,355,1.0,2.0,69,0.00,,,0.00,Wunderground v.1.15,2013-10-14 23:14:00,
2013-10-14 19:15:00,80.1,69.0,29.90,North,353,1.0,2.0,69,0.00,,,0.00,Wunderground v.1.15,2013-10-14 23:15:00,
2013-10-14 19:17:00,80.0,68.9,29.91,WSW,245,1.0,3.0,69,0.00,,,0.00,Wunderground v.1.15,2013-10-14 23:17:00,
2013-10-14 19:19:00,79.9,69.2,29.91,North,6,1.0,3.0,70,0.00,,,0.00,Wunderground v.1.15,2013-10-14 23:19:00,
2013-10-14 19:20:00,79.9,69.2,29.91,NNW,343,1.0,1.0,70,0.00,,,0.00,Wunderground v.1.15,2013-10-14 23:20:00,
2013-10-14 19:22:00,79.8,69.1,29.91,NNW,346,1.0,1.0,70,0.00,,,0.00,Wunderground v.1.15,2013-10-14 23:22:00,
2013-10-14 19:24:00,79.7,69.0,29.91,NW,310,1.0,1.0,70,0.00,,,0.00,Wunderground v.1.15,2013-10-14 23:24:00,
2013-10-14 19:26:00,79.7,69.0,29.91,NNE,18,1.0,1.0,70,0.00,,,0.00,Wunderground v.1.15,2013-10-14 23:26:00,
2013-10-14 19:27:00,79.7,69.0,29.90,NNE,13,0.0,2.0,70,0.00,,,0.00,Wunderground v.1.15,2013-10-14 23:27:00,
2013-10-14 19:28:00,79.7,69.0,29.90,NNE,32,0.0,2.0,70,0.00,,,0.00,Wunderground v.1.15,2013-10-14 23:28:00,
2013-10-14 19:32:00,79.6,69.4,29.91,NNE,23,0.0,7.0,71,0.00,,,0.00,Wunderground v.1.15,2013-10-14 23:32:00,
2013-10-14 19:33:00,79.6,69.4,29.91,North,6,1.0,7.0,71,0.00,,,0.00,Wunderground v.1.15,2013-10-14 23:33:00,
2013-10-14 19:34:00,79.6,69.4,29.91,North,8,1.0,7.0,71,0.00,,,0.00,Wunderground v.1.15,2013-10-14 23:34:00,
2013-10-14 19:35:00,79.6,69.4,29.91,North,6,1.0,7.0,71,0.00,,,0.00,Wunderground v.1.15,2013-10-14 23:35:00,
2013-10-14 19:37:00,79.5,69.3,29.91,North,2,0.0,7.0,71,0.00,,,0.00,Wunderground v.1.15,2013-10-14 23:37:00,
2013-10-14 19:40:00,79.3,69.1,29.91,NW,322,0.0,7.0,71,0.00,,,0.00,Wunderground v.1.15,2013-10-14 23:40:00,
2013-10-14 19:41:00,79.3,69.1,29.91,NW,322,0.0,7.0,71,0.00,,,0.00,Wunderground v.1.15,2013-10-14 23:41:00,
2013-10-14 19:43:00,79.1,69.3,29.91,NNE,20,0.0,7.0,72,0.00,,,0.00,Wunderground v.1.15,2013-10-14 23:43:00,
2013-10-14 19:44:00,79.0,69.2,29.91,NNW,330,0.0,7.0,72,0.00,,,0.00,Wunderground v.1.15,2013-10-14 23:44:00,
2013-10-14 19:47:00,78.8,69.0,29.91,North,357,0.0,7.0,72,0.00,,,0.00,Wunderground v.1.15,2013-10-14 23:47:00,
2013-10-14 19:51:00,78.7,69.3,29.91,NNW,345,0.0,7.0,73,0.00,,,0.00,Wunderground v.1.15,2013-10-14 23:51:00,
2013-10-14 19:52:00,78.7,69.3,29.91,NNW,342,0.0,7.0,73,0.00,,,0.00,Wunderground v.1.15,2013-10-14 23:52:00,
2013-10-14 19:53:00,78.7,69.3,29.91,NNE,13,0.0,7.0,73,0.00,,,0.00,Wunderground v.1.15,2013-10-14 23:53:00,
2013-10-14 19:59:00,78.7,69.3,29.91,NNE,28,0.0,7.0,73,0.00,,,0.00,Wunderground v.1.15,2013-10-14 23:59:00,
2013-10-14 20:00:00,78.7,69.3,29.91,North,10,0.0,0.0,73,0.00,,,0.00,Wunderground v.1.15,2013-10-15 00:00:00,
2013-10-14 20:01:00,78.7,69.3,29.91,North,10,0.0,0.0,73,0.00,,,0.00,Wunderground v.1.15,2013-10-15 00:01:00,
2013-10-14 20:02:00,78.7,69.3,29.91,North,10,0.0,0.0,73,0.00,,,0.00,Wunderground v.1.15,2013-10-15 00:02:00,
2013-10-14 20:07:00,78.5,69.1,29.91,North,349,0.0,1.0,73,0.00,,,0.00,Wunderground v.1.15,2013-10-15 00:07:00,
2013-10-14 20:08:00,78.5,69.5,29.91,North,349,0.0,1.0,74,0.00,,,0.00,Wunderground v.1.15,2013-10-15 00:08:00,
2013-10-14 20:09:00,78.4,69.4,29.91,WSW,241,0.0,1.0,74,0.00,,,0.00,Wunderground v.1.15,2013-10-15 00:09:00,
2013-10-14 20:10:00,78.4,69.4,29.92,WSW,241,0.0,0.0,74,0.00,,,0.00,Wunderground v.1.15,2013-10-15 00:10:00,
2013-10-14 20:11:00,78.3,69.3,29.92,WSW,241,0.0,0.0,74,0.00,,,0.00,Wunderground v.1.15,2013-10-15 00:11:00,
2013-10-14 20:12:00,78.3,69.3,29.92,WSW,241,0.0,0.0,74,0.00,,,0.00,Wunderground v.1.15,2013-10-15 00:12:00,
2013-10-14 20:15:00,78.1,69.1,29.92,WSW,241,0.0,1.0,74,0.00,,,0.00,Wunderground v.1.15,2013-10-15 00:15:00,
2013-10-14 20:16:00,78.0,69.4,29.92,NNE,23,0.0,1.0,75,0.00,,,0.00,Wunderground v.1.15,2013-10-15 00:16:00,
2013-10-14 20:17:00,78.0,69.4,29.92,NNE,23,0.0,1.0,75,0.00,,,0.00,Wunderground v.1.15,2013-10-15 00:17:00,
2013-10-14 20:18:00,77.9,69.3,29.92,NNE,23,0.0,1.0,75,0.00,,,0.00,Wunderground v.1.15,2013-10-15 00:18:00,
2013-10-14 20:20:00,77.8,69.2,29.92,NNE,23,0.0,0.0,75,0.00,,,0.00,Wunderground v.1.15,2013-10-15 00:20:00,
2013-10-14 20:23:00,77.7,69.1,29.92,NNE,23,0.0,0.0,75,0.00,,,0.00,Wunderground v.1.15,2013-10-15 00:23:00,
2013-10-14 20:25:00,77.6,69.0,29.92,NNE,23,0.0,0.0,75,0.00,,,0.00,Wunderground v.1.15,2013-10-15 00:25:00,
2013-10-14 20:29:00,77.5,69.3,29.92,NNE,23,0.0,1.0,76,0.00,,,0.00,Wunderground v.1.15,2013-10-15 00:29:00,
2013-10-14 20:31:00,77.5,69.3,29.92,North,358,0.0,4.0,76,0.00,,,0.00,Wunderground v.1.15,2013-10-15 00:31:00,
2013-10-14 20:32:00,77.5,69.3,29.92,North,358,0.0,4.0,76,0.00,,,0.00,Wunderground v.1.15,2013-10-15 00:32:00,
2013-10-14 20:33:00,77.5,69.3,29.92,North,358,0.0,4.0,76,0.00,,,0.00,Wunderground v.1.15,2013-10-15 00:33:00,
2013-10-14 20:35:00,77.4,69.2,29.92,North,358,0.0,4.0,76,0.00,,,0.00,Wunderground v.1.15,2013-10-15 00:35:00,
2013-10-14 20:37:00,77.4,69.2,29.92,North,358,0.0,4.0,76,0.00,,,0.00,Wunderground v.1.15,2013-10-15 00:37:00,
2013-10-14 20:38:00,77.4,69.2,29.92,North,358,0.0,4.0,76,0.00,,,0.00,Wunderground v.1.15,2013-10-15 00:38:00,
2013-10-14 20:39:00,77.3,69.1,29.92,North,358,0.0,4.0,76,0.00,,,0.00,Wunderground v.1.15,2013-10-15 00:39:00,
2013-10-14 20:41:00,77.3,69.5,29.93,North,358,0.0,4.0,77,0.00,,,0.00,Wunderground v.1.15,2013-10-15 00:41:00,
2013-10-14 20:42:00,77.2,69.4,29.93,North,358,0.0,4.0,77,0.00,,,0.00,Wunderground v.1.15,2013-10-15 00:42:00,
2013-10-14 20:44:00,77.2,69.4,29.93,North,357,0.0,4.0,77,0.00,,,0.00,Wunderground v.1.15,2013-10-15 00:44:00,
2013-10-14 20:45:00,77.2,69.4,29.93,North,358,0.0,4.0,77,0.00,,,0.00,Wunderground v.1.15,2013-10-15 00:45:00,
2013-10-14 20:46:00,77.2,69.4,29.93,North,358,0.0,4.0,77,0.00,,,0.00,Wunderground v.1.15,2013-10-15 00:46:00,
2013-10-14 20:49:00,77.1,69.7,29.93,North,358,0.0,4.0,78,0.00,,,0.00,Wunderground v.1.15,2013-10-15 00:49:00,
2013-10-14 20:53:00,77.0,69.6,29.93,North,351,0.0,4.0,78,0.00,,,0.00,Wunderground v.1.15,2013-10-15 00:53:00,
2013-10-14 20:55:00,77.0,69.6,29.93,North,351,0.0,4.0,78,0.00,,,0.00,Wunderground v.1.15,2013-10-15 00:55:00,
2013-10-14 20:56:00,76.9,69.5,29.93,North,352,0.0,4.0,78,0.00,,,0.00,Wunderground v.1.15,2013-10-15 00:56:00,
2013-10-14 20:57:00,76.9,69.5,29.93,North,351,0.0,4.0,78,0.00,,,0.00,Wunderground v.1.15,2013-10-15 00:57:00,
2013-10-14 20:59:00,76.8,69.4,29.93,North,351,0.0,4.0,78,0.00,,,0.00,Wunderground v.1.15,2013-10-15 00:59:00,
2013-10-14 21:00:00,76.7,69.3,29.93,North,352,0.0,0.0,78,0.00,,,0.00,Wunderground v.1.15,2013-10-15 01:00:00,
2013-10-14 21:03:00,76.6,69.2,29.93,North,351,0.0,0.0,78,0.00,,,0.00,Wunderground v.1.15,2013-10-15 01:03:00,
2013-10-14 21:05:00,76.6,69.2,29.93,North,351,0.0,0.0,78,0.00,,,0.00,Wunderground v.1.15,2013-10-15 01:05:00,
2013-10-14 21:06:00,76.5,69.1,29.93,North,351,0.0,0.0,78,0.00,,,0.00,Wunderground v.1.15,2013-10-15 01:06:00,
2013-10-14 21:07:00,76.4,69.0,29.93,North,351,0.0,0.0,78,0.00,,,0.00,Wunderground v.1.15,2013-10-15 01:07:00,
2013-10-14 21:08:00,76.4,69.4,29.93,North,351,0.0,0.0,79,0.00,,,0.00,Wunderground v.1.15,2013-10-15 01:08:00,
2013-10-14 21:11:00,76.3,69.3,29.94,North,351,0.0,0.0,79,0.00,,,0.00,Wunderground v.1.15,2013-10-15 01:11:00,
2013-10-14 21:14:00,76.2,69.6,29.94,North,352,0.0,0.0,80,0.00,,,0.00,Wunderground v.1.15,2013-10-15 01:14:00,
2013-10-14 21:16:00,76.2,69.6,29.94,North,351,0.0,0.0,80,0.00,,,0.00,Wunderground v.1.15,2013-10-15 01:16:00,
2013-10-14 21:20:00,76.0,69.4,29.94,North,351,0.0,0.0,80,0.00,,,0.00,Wunderground v.1.15,2013-10-15 01:20:00,
2013-10-14 21:21:00,75.9,69.3,29.94,North,351,0.0,0.0,80,0.00,,,0.00,Wunderground v.1.15,2013-10-15 01:21:00,
2013-10-14 21:22:00,75.9,69.3,29.94,North,351,0.0,0.0,80,0.00,,,0.00,Wunderground v.1.15,2013-10-15 01:22:00,
2013-10-14 21:23:00,75.8,69.2,29.94,North,351,0.0,0.0,80,0.00,,,0.00,Wunderground v.1.15,2013-10-15 01:23:00,
2013-10-14 21:24:00,75.8,69.2,29.94,North,351,0.0,0.0,80,0.00,,,0.00,Wunderground v.1.15,2013-10-15 01:24:00,
2013-10-14 21:25:00,75.8,69.6,29.94,North,351,0.0,0.0,81,0.00,,,0.00,Wunderground v.1.15,2013-10-15 01:25:00,
2013-10-14 21:26:00,75.8,69.6,29.94,North,351,0.0,0.0,81,0.00,,,0.00,Wunderground v.1.15,2013-10-15 01:26:00,
2013-10-14 21:27:00,75.8,69.9,29.94,North,351,0.0,0.0,82,0.00,,,0.00,Wunderground v.1.15,2013-10-15 01:27:00,
2013-10-14 21:29:00,75.8,69.9,29.94,North,352,0.0,0.0,82,0.00,,,0.00,Wunderground v.1.15,2013-10-15 01:29:00,
2013-10-14 21:34:00,75.7,69.8,29.94,North,351,0.0,1.0,82,0.00,,,0.00,Wunderground v.1.15,2013-10-15 01:34:00,
2013-10-14 21:35:00,75.6,69.7,29.94,NNW,338,0.0,1.0,82,0.00,,,0.00,Wunderground v.1.15,2013-10-15 01:35:00,
2013-10-14 21:36:00,75.6,69.4,29.94,NNW,338,0.0,1.0,81,0.00,,,0.00,Wunderground v.1.15,2013-10-15 01:36:00,
2013-10-14 21:39:00,75.6,69.4,29.94,West,276,0.0,1.0,81,0.00,,,0.00,Wunderground v.1.15,2013-10-15 01:39:00,
2013-10-14 21:41:00,75.6,69.4,29.94,West,276,0.0,1.0,81,0.00,,,0.00,Wunderground v.1.15,2013-10-15 01:41:00,
2013-10-14 21:43:00,75.6,69.4,29.94,West,276,0.0,1.0,81,0.00,,,0.00,Wunderground v.1.15,2013-10-15 01:43:00,
2013-10-14 21:44:00,75.6,69.4,29.94,West,276,0.0,1.0,81,0.00,,,0.00,Wunderground v.1.15,2013-10-15 01:44:00,
2013-10-14 21:45:00,75.7,69.5,29.94,West,276,0.0,1.0,81,0.00,,,0.00,Wunderground v.1.15,2013-10-15 01:45:00,
2013-10-14 21:46:00,75.7,69.5,29.94,West,276,0.0,1.0,81,0.00,,,0.00,Wunderground v.1.15,2013-10-15 01:46:00,
2013-10-14 21:51:00,75.6,69.4,29.94,West,276,0.0,1.0,81,0.00,,,0.00,Wunderground v.1.15,2013-10-15 01:51:00,
2013-10-14 21:52:00,75.5,69.3,29.94,West,276,0.0,1.0,81,0.00,,,0.00,Wunderground v.1.15,2013-10-15 01:52:00,
2013-10-14 21:56:00,75.3,69.1,29.94,West,276,0.0,1.0,81,0.00,,,0.00,Wunderground v.1.15,2013-10-15 01:56:00,
2013-10-14 21:58:00,75.2,69.0,29.94,West,276,0.0,1.0,81,0.00,,,0.00,Wunderground v.1.15,2013-10-15 01:58:00,
2013-10-14 22:00:00,75.1,69.2,29.94,West,276,0.0,0.0,82,0.00,,,0.00,Wunderground v.1.15,2013-10-15 02:00:00,
2013-10-14 22:01:00,75.0,69.1,29.94,West,276,0.0,0.0,82,0.00,,,0.00,Wunderground v.1.15,2013-10-15 02:01:00,
2013-10-14 22:03:00,74.9,69.0,29.94,West,276,0.0,0.0,82,0.00,,,0.00,Wunderground v.1.15,2013-10-15 02:03:00,
2013-10-14 22:07:00,74.8,68.9,29.94,West,276,0.0,0.0,82,0.00,,,0.00,Wunderground v.1.15,2013-10-15 02:07:00,
2013-10-14 22:08:00,74.8,68.9,29.94,West,276,0.0,0.0,82,0.00,,,0.00,Wunderground v.1.15,2013-10-15 02:08:00,
2013-10-14 22:10:00,74.7,69.2,29.94,West,276,0.0,0.0,83,0.00,,,0.00,Wunderground v.1.15,2013-10-15 02:10:00,
2013-10-14 22:13:00,74.6,69.1,29.94,West,276,0.0,0.0,83,0.00,,,0.00,Wunderground v.1.15,2013-10-15 02:13:00,
2013-10-14 22:14:00,74.6,69.1,29.94,West,276,0.0,0.0,83,0.00,,,0.00,Wunderground v.1.15,2013-10-15 02:14:00,
2013-10-14 22:16:00,74.7,69.2,29.94,West,276,0.0,0.0,83,0.00,,,0.00,Wunderground v.1.15,2013-10-15 02:16:00,
2013-10-14 22:17:00,74.7,69.2,29.95,West,276,0.0,0.0,83,0.00,,,0.00,Wunderground v.1.15,2013-10-15 02:17:00,
2013-10-14 22:20:00,74.7,69.2,29.95,West,276,0.0,0.0,83,0.00,,,0.00,Wunderground v.1.15,2013-10-15 02:20:00,
2013-10-14 22:21:00,74.7,69.2,29.94,West,276,0.0,0.0,83,0.00,,,0.00,Wunderground v.1.15,2013-10-15 02:21:00,
2013-10-14 22:23:00,74.6,69.1,29.95,West,276,0.0,0.0,83,0.00,,,0.00,Wunderground v.1.15,2013-10-15 02:23:00,
2013-10-14 22:26:00,74.5,69.0,29.95,West,276,0.0,0.0,83,0.00,,,0.00,Wunderground v.1.15,2013-10-15 02:26:00,
2013-10-14 22:27:00,74.5,69.0,29.95,West,276,0.0,0.0,83,0.00,,,0.00,Wunderground v.1.15,2013-10-15 02:27:00,
2013-10-14 22:29:00,74.4,68.9,29.95,West,276,0.0,0.0,83,0.00,,,0.00,Wunderground v.1.15,2013-10-15 02:29:00,
2013-10-14 22:30:00,74.4,68.9,29.95,West,276,0.0,0.0,83,0.00,,,0.00,Wunderground v.1.15,2013-10-15 02:30:00,
2013-10-14 22:33:00,74.3,68.8,29.94,West,276,0.0,1.0,83,0.00,,,0.00,Wunderground v.1.15,2013-10-15 02:33:00,
2013-10-14 22:34:00,74.2,68.7,29.94,West,276,0.0,1.0,83,0.00,,,0.00,Wunderground v.1.15,2013-10-15 02:34:00,
2013-10-14 22:37:00,74.2,69.1,29.94,West,276,0.0,1.0,84,0.00,,,0.00,Wunderground v.1.15,2013-10-15 02:37:00,
2013-10-14 22:38:00,74.1,69.0,29.95,West,276,0.0,1.0,84,0.00,,,0.00,Wunderground v.1.15,2013-10-15 02:38:00,
2013-10-14 22:39:00,74.1,69.0,29.94,West,276,0.0,1.0,84,0.00,,,0.00,Wunderground v.1.15,2013-10-15 02:39:00,
2013-10-14 22:40:00,74.1,69.0,29.95,West,276,0.0,1.0,84,0.00,,,0.00,Wunderground v.1.15,2013-10-15 02:40:00,
2013-10-14 22:41:00,74.0,68.9,29.94,West,276,0.0,1.0,84,0.00,,,0.00,Wunderground v.1.15,2013-10-15 02:41:00,
2013-10-14 22:44:00,73.9,68.8,29.94,West,276,0.0,1.0,84,0.00,,,0.00,Wunderground v.1.15,2013-10-15 02:44:00,
2013-10-14 22:50:00,74.0,69.2,29.94,West,266,0.0,1.0,85,0.00,,,0.00,Wunderground v.1.15,2013-10-15 02:50:00,
2013-10-14 22:51:00,73.9,69.1,29.94,West,266,0.0,1.0,85,0.00,,,0.00,Wunderground v.1.15,2013-10-15 02:51:00,
2013-10-14 22:54:00,73.9,69.1,29.94,West,266,0.0,1.0,85,0.00,,,0.00,Wunderground v.1.15,2013-10-15 02:54:00,
2013-10-14 22:56:00,73.8,69.0,29.94,West,266,0.0,1.0,85,0.00,,,0.00,Wunderground v.1.15,2013-10-15 02:56:00,
2013-10-14 22:57:00,73.8,69.0,29.94,West,266,0.0,1.0,85,0.00,,,0.00,Wunderground v.1.15,2013-10-15 02:57:00,
2013-10-14 22:59:00,73.8,69.0,29.94,West,266,0.0,1.0,85,0.00,,,0.00,Wunderground v.1.15,2013-10-15 02:59:00,
2013-10-14 23:03:00,73.7,68.9,29.94,West,266,0.0,0.0,85,0.00,,,0.00,Wunderground v.1.15,2013-10-15 03:03:00,
2013-10-14 23:04:00,73.7,68.9,29.94,West,266,0.0,0.0,85,0.00,,,0.00,Wunderground v.1.15,2013-10-15 03:04:00,
2013-10-14 23:05:00,73.7,68.9,29.94,West,266,0.0,0.0,85,0.00,,,0.00,Wunderground v.1.15,2013-10-15 03:05:00,
2013-10-14 23:07:00,73.7,69.2,29.94,West,266,0.0,0.0,86,0.00,,,0.00,Wunderground v.1.15,2013-10-15 03:07:00,
2013-10-14 23:10:00,73.6,68.8,29.94,West,266,0.0,0.0,85,0.00,,,0.00,Wunderground v.1.15,2013-10-15 03:10:00,
2013-10-14 23:11:00,73.5,68.7,29.94,West,266,0.0,0.0,85,0.00,,,0.00,Wunderground v.1.15,2013-10-15 03:11:00,
2013-10-14 23:13:00,73.4,68.6,29.94,West,266,0.0,0.0,85,0.00,,,0.00,Wunderground v.1.15,2013-10-15 03:13:00,
2013-10-14 23:14:00,73.4,68.6,29.94,West,266,0.0,0.0,85,0.00,,,0.00,Wunderground v.1.15,2013-10-15 03:14:00,
2013-10-14 23:16:00,73.3,68.9,29.94,West,266,0.0,0.0,86,0.00,,,0.00,Wunderground v.1.15,2013-10-15 03:16:00,
2013-10-14 23:19:00,73.3,69.2,29.94,West,266,0.0,0.0,87,0.00,,,0.00,Wunderground v.1.15,2013-10-15 03:19:00,
2013-10-14 23:20:00,73.3,69.2,29.94,West,266,0.0,0.0,87,0.00,,,0.00,Wunderground v.1.15,2013-10-15 03:20:00,
2013-10-14 23:21:00,73.3,69.2,29.94,West,266,0.0,0.0,87,0.00,,,0.00,Wunderground v.1.15,2013-10-15 03:21:00,
2013-10-14 23:26:00,73.3,69.5,29.94,West,266,0.0,0.0,88,0.00,,,0.00,Wunderground v.1.15,2013-10-15 03:26:00,
2013-10-14 23:27:00,73.4,69.3,29.94,West,266,0.0,0.0,87,0.00,,,0.00,Wunderground v.1.15,2013-10-15 03:27:00,
2013-10-14 23:29:00,73.4,69.3,29.94,West,266,0.0,0.0,87,0.00,,,0.00,Wunderground v.1.15,2013-10-15 03:29:00,
2013-10-14 23:30:00,73.4,69.3,29.94,West,266,0.0,0.0,87,0.00,,,0.00,Wunderground v.1.15,2013-10-15 03:30:00,
2013-10-14 23:33:00,73.5,69.4,29.94,West,266,0.0,0.0,87,0.00,,,0.00,Wunderground v.1.15,2013-10-15 03:33:00,
2013-10-14 23:35:00,73.5,69.4,29.94,West,266,0.0,0.0,87,0.00,,,0.00,Wunderground v.1.15,2013-10-15 03:35:00,
2013-10-14 23:36:00,73.4,69.3,29.94,West,266,0.0,0.0,87,0.00,,,0.00,Wunderground v.1.15,2013-10-15 03:36:00,
2013-10-14 23:37:00,73.4,69.3,29.94,West,266,0.0,0.0,87,0.00,,,0.00,Wunderground v.1.15,2013-10-15 03:37:00,
2013-10-14 23:41:00,73.1,69.0,29.94,West,266,0.0,0.0,87,0.00,,,0.00,Wunderground v.1.15,2013-10-15 03:41:00,
2013-10-14 23:43:00,73.0,69.2,29.94,West,266,0.0,0.0,88,0.00,,,0.00,Wunderground v.1.15,2013-10-15 03:43:00,
2013-10-14 23:44:00,73.0,69.6,29.94,West,266,0.0,0.0,89,0.00,,,0.00,Wunderground v.1.15,2013-10-15 03:44:00,
2013-10-14 23:45:00,73.0,69.6,29.94,West,266,0.0,0.0,89,0.00,,,0.00,Wunderground v.1.15,2013-10-15 03:45:00,
2013-10-14 23:46:00,73.0,69.6,29.94,West,266,0.0,0.0,89,0.00,,,0.00,Wunderground v.1.15,2013-10-15 03:46:00,
2013-10-14 23:50:00,72.8,69.4,29.94,West,266,0.0,0.0,89,0.00,,,0.00,Wunderground v.1.15,2013-10-15 03:50:00,
2013-10-14 23:51:00,72.8,69.4,29.94,West,266,0.0,0.0,89,0.00,,,0.00,Wunderground v.1.15,2013-10-15 03:51:00,
2013-10-14 23:52:00,72.8,69.4,29.94,West,266,0.0,0.0,89,0.00,,,0.00,Wunderground v.1.15,2013-10-15 03:52:00,
2013-10-14 23:56:00,72.6,69.2,29.94,West,266,0.0,0.0,89,0.00,,,0.00,Wunderground v.1.15,2013-10-15 03:56:00,
2013-10-14 23:57:00,72.5,69.1,29.94,West,266,0.0,0.0,89,0.00,,,0.00,Wunderground v.1.15,2013-10-15 03:57:00,
2013-10-14 23:58:00,72.5,69.1,29.94,West,266,0.0,0.0,89,0.00,,,0.00,Wunderground v.1.15,2013-10-15 03:58:00,
2013-10-14 23:59:00,72.4,69.0,29.94,West,266,0.0,0.0,89,0.00,,,0.00,Wunderground v.1.15,2013-10-15 03:59:00,